AFL279 VTSP-UUEE

Flight info

Callsign AFL279
Flight time 9h 8m
Altitude 34000
Route N0490F340 UPSAB L515 OBMOG M770 KAKID M875 BUTOP A589 ASARI L509 TAPIS M875 MILSO M161 LEDGI M166 ARISA L736 OLOPI
Aircraft B77W/H-VGDW/C

Departure

Time 2026-05-07 09:03
Airport Phuket International Airport (VTSP)

Arrival

Time 2026-05-07 18:12
Airport Sheremetyevo International Airport (UUEE)
Time Latitude Longitude Altitude Speed Heading
2026-05-07 08:27 8.10587 98.30449 32 ft 0 kts 105°
2026-05-07 08:47 8.10592 98.30428 31 ft 4 kts 105°
2026-05-07 08:47 8.10598 98.30408 30 ft 4 kts 93°
2026-05-07 08:47 8.10595 98.30387 29 ft 4 kts 57°
2026-05-07 08:47 8.10580 98.30371 27 ft 4 kts 28°
2026-05-07 08:48 8.10562 98.30364 31 ft 0 kts 14°
2026-05-07 08:53 8.10572 98.30366 31 ft 5 kts 14°
2026-05-07 08:54 8.10642 98.30384 31 ft 15 kts 14°
2026-05-07 08:54 8.10742 98.30411 31 ft 15 kts 15°
2026-05-07 08:54 8.10842 98.30439 32 ft 15 kts 15°
2026-05-07 08:54 8.10943 98.30466 32 ft 15 kts 14°
2026-05-07 08:55 8.10973 98.30474 32 ft 0 kts 14°
2026-05-07 08:55 8.10992 98.30478 32 ft 7 kts 14°
2026-05-07 08:55 8.11044 98.30516 32 ft 10 kts 69°
2026-05-07 08:55 8.11055 98.30588 32 ft 11 kts 84°
2026-05-07 08:56 8.11066 98.30691 33 ft 18 kts 84°
2026-05-07 08:56 8.11079 98.30814 33 ft 18 kts 84°
2026-05-07 08:56 8.11095 98.30931 34 ft 14 kts 72°
2026-05-07 08:56 8.11125 98.31024 34 ft 14 kts 82°
2026-05-07 08:57 8.11133 98.31121 35 ft 14 kts 85°
2026-05-07 08:57 8.11143 98.31225 36 ft 16 kts 84°
2026-05-07 08:57 8.11154 98.31346 38 ft 18 kts 85°
2026-05-07 08:57 8.11166 98.31473 42 ft 18 kts 84°
2026-05-07 08:58 8.11178 98.31599 47 ft 18 kts 84°
2026-05-07 08:58 8.11190 98.31725 46 ft 18 kts 84°
2026-05-07 08:58 8.11203 98.31852 52 ft 18 kts 85°
2026-05-07 08:58 8.11213 98.31978 61 ft 18 kts 85°
2026-05-07 08:59 8.11225 98.32105 68 ft 18 kts 84°
2026-05-07 08:59 8.11237 98.32229 74 ft 18 kts 84°
2026-05-07 08:59 8.11248 98.32356 84 ft 19 kts 85°
2026-05-07 08:59 8.11261 98.32493 86 ft 20 kts 84°
2026-05-07 09:00 8.11275 98.32629 90 ft 20 kts 85°
2026-05-07 09:00 8.11287 98.32766 90 ft 20 kts 85°
2026-05-07 09:00 8.11300 98.32903 94 ft 20 kts 84°
2026-05-07 09:00 8.11330 98.32996 98 ft 0 kts 42°
2026-05-07 09:01 8.11366 98.33014 100 ft 10 kts 15°
2026-05-07 09:02 8.11428 98.33004 99 ft 7 kts 322°
2026-05-07 09:02 8.11434 98.32981 99 ft 0 kts 266°
2026-05-07 09:02 8.11433 98.32978 99 ft 6 kts 267°
2026-05-07 09:03 8.11414 98.32661 90 ft 87 kts 264°
2026-05-07 09:03 8.11330 98.31786 54 ft 162 kts 264°
2026-05-07 09:03 8.11224 98.30461 174 ft 204 kts 266°
2026-05-07 09:03 8.11086 98.29005 754 ft 207 kts 263°
2026-05-07 09:04 8.10940 98.27564 1482 ft 209 kts 263°
2026-05-07 09:04 8.10787 98.26076 1939 ft 223 kts 263°
2026-05-07 09:04 8.10623 98.24443 2131 ft 243 kts 264°
2026-05-07 09:04 8.10451 98.22692 2472 ft 259 kts 264°
2026-05-07 09:05 8.10419 98.20859 2874 ft 267 kts 284°
2026-05-07 09:05 8.11338 98.19246 3383 ft 270 kts 321°
2026-05-07 09:05 8.13014 98.18450 3978 ft 271 kts 354°
2026-05-07 09:05 8.14888 98.18480 4618 ft 272 kts
2026-05-07 09:06 8.16803 98.18635 5298 ft 277 kts
2026-05-07 09:06 8.18699 98.18789 6091 ft 279 kts
2026-05-07 09:06 8.20647 98.18953 6678 ft 283 kts
2026-05-07 09:06 8.22620 98.19120 7287 ft 285 kts
2026-05-07 09:07 8.24609 98.19287 7902 ft 288 kts
2026-05-07 09:07 8.26615 98.19453 8508 ft 290 kts
2026-05-07 09:07 8.28635 98.19619 9097 ft 293 kts
2026-05-07 09:07 8.30682 98.19787 9697 ft 296 kts
2026-05-07 09:08 8.32732 98.19626 10099 ft 303 kts 341°
2026-05-07 09:08 8.34693 98.18742 10313 ft 318 kts 335°
2026-05-07 09:08 8.36738 98.17721 10471 ft 338 kts 335°
2026-05-07 09:08 8.38909 98.16633 10639 ft 358 kts 335°
2026-05-07 09:09 8.41209 98.15489 10786 ft 378 kts 335°
2026-05-07 09:09 8.43609 98.14304 11166 ft 389 kts 335°
2026-05-07 09:09 8.46068 98.13096 11694 ft 396 kts 335°
2026-05-07 09:09 8.48562 98.11877 12359 ft 400 kts 335°
2026-05-07 09:10 8.51072 98.10651 13058 ft 402 kts 335°
2026-05-07 09:10 8.53609 98.09414 13709 ft 406 kts 335°
2026-05-07 09:10 8.56166 98.08167 14240 ft 410 kts 335°
2026-05-07 09:10 8.58739 98.06896 14824 ft 414 kts 335°
2026-05-07 09:11 8.61328 98.05596 15401 ft 417 kts 335°
2026-05-07 09:11 8.63929 98.04283 15963 ft 420 kts 335°
2026-05-07 09:11 8.66557 98.02956 16502 ft 424 kts 335°
2026-05-07 09:11 8.69201 98.01621 17039 ft 427 kts 335°
2026-05-07 09:12 8.71878 98.00272 17557 ft 431 kts 335°
2026-05-07 09:12 8.74572 97.98915 18086 ft 434 kts 335°
2026-05-07 09:12 8.77289 97.97548 18540 ft 438 kts 335°
2026-05-07 09:12 8.80022 97.96172 19002 ft 440 kts 335°
2026-05-07 09:13 8.82772 97.94788 19443 ft 443 kts 335°
2026-05-07 09:13 8.85542 97.93393 19903 ft 446 kts 335°
2026-05-07 09:13 8.88329 97.91989 20356 ft 449 kts 335°
2026-05-07 09:13 8.91128 97.90579 20780 ft 451 kts 335°
2026-05-07 09:14 8.92998 97.89637 21064 ft 453 kts 335°
2026-05-07 09:14 8.95828 97.88210 21492 ft 456 kts 334°
2026-05-07 09:14 8.98680 97.86773 21916 ft 459 kts 335°
2026-05-07 09:14 9.01548 97.85328 22327 ft 462 kts 334°
2026-05-07 09:15 9.04434 97.83873 22713 ft 465 kts 334°
2026-05-07 09:15 9.07342 97.82407 23123 ft 468 kts 334°
2026-05-07 09:15 9.10264 97.80933 23486 ft 471 kts 334°
2026-05-07 09:15 9.13207 97.79448 23808 ft 473 kts 334°
2026-05-07 09:16 9.16162 97.77955 24138 ft 476 kts 334°
2026-05-07 09:16 9.19127 97.76458 24463 ft 478 kts 334°
2026-05-07 09:16 9.22105 97.74954 24789 ft 480 kts 334°
2026-05-07 09:16 9.25097 97.73443 25096 ft 482 kts 334°
2026-05-07 09:17 9.28103 97.71924 25403 ft 484 kts 334°
2026-05-07 09:17 9.31122 97.70398 25716 ft 486 kts 334°
2026-05-07 09:17 9.34161 97.68862 26017 ft 489 kts 334°
2026-05-07 09:17 9.37211 97.67320 26306 ft 491 kts 334°
2026-05-07 09:18 9.40271 97.65772 26608 ft 493 kts 334°
2026-05-07 09:18 9.43308 97.64237 26890 ft 495 kts 334°
2026-05-07 09:18 9.46393 97.62676 27164 ft 497 kts 335°
2026-05-07 09:18 9.49490 97.61109 27434 ft 499 kts 334°
2026-05-07 09:19 9.52607 97.59531 27694 ft 501 kts 335°
2026-05-07 09:19 9.55730 97.57950 27945 ft 503 kts 335°
2026-05-07 09:19 9.58867 97.56362 28189 ft 505 kts 335°
2026-05-07 09:19 9.62014 97.54769 28420 ft 507 kts 335°
2026-05-07 09:20 9.65177 97.53166 28676 ft 508 kts 335°
2026-05-07 09:20 9.68322 97.51572 29253 ft 501 kts 335°
2026-05-07 09:20 9.71419 97.50002 29914 ft 495 kts 335°
2026-05-07 09:20 9.74482 97.48449 30461 ft 488 kts 335°
2026-05-07 09:21 9.77501 97.46918 31028 ft 482 kts 335°
2026-05-07 09:21 9.80485 97.45405 31609 ft 476 kts 335°
2026-05-07 09:21 9.83424 97.43915 32188 ft 469 kts 335°
2026-05-07 09:21 9.86323 97.42444 32770 ft 463 kts 335°
2026-05-07 09:22 9.89190 97.40989 33238 ft 459 kts 335°
2026-05-07 09:22 9.92008 97.39560 33627 ft 457 kts 335°
2026-05-07 09:22 9.94858 97.38114 33768 ft 460 kts 335°
2026-05-07 09:22 9.97734 97.36654 33796 ft 464 kts 335°
2026-05-07 09:23 10.03572 97.33699 33818 ft 473 kts 335°
2026-05-07 09:23 10.09526 97.30709 33813 ft 481 kts 335°
2026-05-07 09:24 10.15580 97.27668 33814 ft 490 kts 335°
2026-05-07 09:24 10.21734 97.24572 33811 ft 497 kts 335°
2026-05-07 09:25 10.27966 97.21433 33811 ft 502 kts 335°
2026-05-07 09:25 10.34265 97.18259 33806 ft 508 kts 335°
2026-05-07 09:26 10.40574 97.15078 33812 ft 512 kts 335°
2026-05-07 09:26 10.46972 97.11851 33807 ft 514 kts 335°
2026-05-07 09:27 10.53399 97.08608 33803 ft 515 kts 335°
2026-05-07 09:28 10.62993 97.03763 33801 ft 513 kts 335°
2026-05-07 09:28 10.69366 97.00544 33796 ft 510 kts 334°
2026-05-07 09:29 10.75703 96.97341 33798 ft 507 kts 334°
2026-05-07 09:29 10.82001 96.94157 33797 ft 504 kts 334°
2026-05-07 09:30 10.88274 96.90984 33803 ft 503 kts 334°
2026-05-07 09:30 10.94535 96.87815 33802 ft 502 kts 334°
2026-05-07 09:31 11.00795 96.84645 33804 ft 502 kts 334°
2026-05-07 09:31 11.07010 96.81497 33804 ft 503 kts 334°
2026-05-07 09:32 11.13296 96.78311 33805 ft 504 kts 334°
2026-05-07 09:32 11.19582 96.75123 33805 ft 505 kts 334°
2026-05-07 09:33 11.25867 96.71934 33807 ft 505 kts 334°
2026-05-07 09:33 11.32161 96.68739 33804 ft 506 kts 334°
2026-05-07 09:34 11.38460 96.65541 33805 ft 506 kts 334°
2026-05-07 09:34 11.44722 96.62359 33806 ft 505 kts 334°
2026-05-07 09:35 11.51017 96.59159 33804 ft 505 kts 334°
2026-05-07 09:35 11.57301 96.55963 33805 ft 504 kts 334°
2026-05-07 09:36 11.63571 96.52771 33805 ft 504 kts 334°
2026-05-07 09:36 11.69844 96.49577 33805 ft 503 kts 334°
2026-05-07 09:37 11.76100 96.46391 33809 ft 502 kts 334°
2026-05-07 09:37 11.82354 96.43202 33807 ft 502 kts 334°
2026-05-07 09:38 11.88508 96.39826 33807 ft 503 kts 327°
2026-05-07 09:38 11.94024 96.35430 33803 ft 504 kts 316°
2026-05-07 09:39 11.98967 96.30349 33810 ft 504 kts 315°
2026-05-07 09:39 12.03839 96.25263 33806 ft 503 kts 315°
2026-05-07 09:40 12.08750 96.20185 33806 ft 502 kts 315°
2026-05-07 09:40 12.13667 96.15134 33804 ft 501 kts 315°
2026-05-07 09:41 12.18588 96.10085 33810 ft 501 kts 315°
2026-05-07 09:41 12.23501 96.05039 33812 ft 501 kts 315°
2026-05-07 09:42 12.28404 95.99998 33812 ft 501 kts 315°
2026-05-07 09:42 12.33348 95.94912 33807 ft 502 kts 315°
2026-05-07 09:43 12.38277 95.89837 33808 ft 503 kts 315°
2026-05-07 09:43 12.43217 95.84749 33809 ft 503 kts 315°
2026-05-07 09:44 12.48156 95.79659 33811 ft 504 kts 315°
2026-05-07 09:44 12.53067 95.74595 33810 ft 505 kts 315°
2026-05-07 09:45 12.58016 95.69488 33812 ft 505 kts 315°
2026-05-07 09:45 12.62960 95.64384 33810 ft 505 kts 315°
2026-05-07 09:46 12.67904 95.59277 33807 ft 505 kts 315°
2026-05-07 09:46 12.72843 95.54172 33808 ft 505 kts 315°
2026-05-07 09:47 12.77786 95.49059 33811 ft 505 kts 315°
2026-05-07 09:47 12.82704 95.43969 33811 ft 505 kts 315°
2026-05-07 09:48 12.87632 95.38833 33812 ft 505 kts 315°
2026-05-07 09:48 12.92510 95.33643 33816 ft 506 kts 314°
2026-05-07 09:49 12.97387 95.28434 33813 ft 506 kts 314°
2026-05-07 09:49 13.02263 95.23236 33812 ft 505 kts 314°
2026-05-07 09:50 13.07139 95.18044 33810 ft 505 kts 314°
2026-05-07 09:50 13.12006 95.12861 33815 ft 504 kts 314°
2026-05-07 09:51 13.16867 95.07680 33811 ft 503 kts 314°
2026-05-07 09:51 13.21717 95.02508 33815 ft 502 kts 314°
2026-05-07 09:52 13.26531 94.97370 33818 ft 501 kts 314°
2026-05-07 09:52 13.31368 94.92204 33815 ft 501 kts 314°
2026-05-07 09:53 13.36198 94.87044 33817 ft 501 kts 314°
2026-05-07 09:53 13.41029 94.81879 33811 ft 501 kts 314°
2026-05-07 09:54 13.45859 94.76711 33811 ft 502 kts 314°
2026-05-07 09:54 13.50699 94.71530 33812 ft 503 kts 314°
2026-05-07 09:55 13.55546 94.66339 33814 ft 503 kts 314°
2026-05-07 09:55 13.60391 94.61145 33816 ft 504 kts 314°
2026-05-07 09:56 13.65246 94.55938 33811 ft 504 kts 314°
2026-05-07 09:56 13.70079 94.50751 33813 ft 504 kts 314°
2026-05-07 09:57 13.74933 94.45539 33815 ft 504 kts 314°
2026-05-07 09:57 13.79786 94.40324 33810 ft 504 kts 314°
2026-05-07 09:58 13.84640 94.35105 33810 ft 504 kts 314°
2026-05-07 09:58 13.89486 94.29891 33809 ft 503 kts 314°
2026-05-07 09:59 13.93503 94.25566 33810 ft 503 kts 314°
2026-05-07 09:59 13.99119 94.19516 33810 ft 502 kts 314°
2026-05-07 10:00 14.03160 94.15161 33810 ft 502 kts 314°
2026-05-07 10:00 14.07984 94.09956 33812 ft 501 kts 314°
2026-05-07 10:01 14.12768 94.04793 33811 ft 501 kts 314°
2026-05-07 10:01 14.17614 93.99560 33814 ft 501 kts 314°
2026-05-07 10:02 14.22393 93.94394 33808 ft 501 kts 314°
2026-05-07 10:02 14.27209 93.89186 33811 ft 501 kts 314°
2026-05-07 10:03 14.32025 93.83975 33811 ft 501 kts 314°
2026-05-07 10:03 14.36821 93.78781 33808 ft 501 kts 314°
2026-05-07 10:04 14.41616 93.73585 33814 ft 499 kts 313°
2026-05-07 10:04 14.46401 93.68397 33811 ft 499 kts 313°
2026-05-07 10:05 14.51181 93.63210 33807 ft 498 kts 313°
2026-05-07 10:05 14.55948 93.58034 33812 ft 497 kts 313°
2026-05-07 10:06 14.60683 93.52890 33810 ft 497 kts 313°
2026-05-07 10:06 14.65439 93.47719 33814 ft 496 kts 313°
2026-05-07 10:07 14.70187 93.42553 33810 ft 496 kts 313°
2026-05-07 10:07 14.74938 93.37380 33813 ft 496 kts 313°
2026-05-07 10:08 14.79686 93.32208 33813 ft 496 kts 313°
2026-05-07 10:08 14.84406 93.27062 33816 ft 495 kts 312°
2026-05-07 10:09 14.89153 93.21883 33814 ft 495 kts 312°
2026-05-07 10:09 14.93896 93.16706 33814 ft 496 kts 312°
2026-05-07 10:10 14.98638 93.11525 33815 ft 496 kts 312°
2026-05-07 10:10 15.03361 93.06362 33815 ft 496 kts 312°
2026-05-07 10:11 15.08100 93.01178 33813 ft 496 kts 312°
2026-05-07 10:11 15.12813 92.96018 33815 ft 496 kts 312°
2026-05-07 10:12 15.17550 92.90829 33816 ft 496 kts 312°
2026-05-07 10:12 15.22279 92.85644 33815 ft 495 kts 311°
2026-05-07 10:13 15.27011 92.80453 33813 ft 495 kts 311°
2026-05-07 10:13 15.31737 92.75264 33814 ft 495 kts 311°
2026-05-07 10:14 15.36463 92.70071 33819 ft 495 kts 311°
2026-05-07 10:14 15.41186 92.64878 33818 ft 494 kts 311°
2026-05-07 10:15 15.45953 92.59736 33816 ft 494 kts 313°
2026-05-07 10:15 15.50799 92.54736 33814 ft 494 kts 313°
2026-05-07 10:16 15.55679 92.49712 33816 ft 494 kts 313°
2026-05-07 10:16 15.60533 92.44676 33817 ft 493 kts 313°
2026-05-07 10:17 15.65376 92.39630 33815 ft 493 kts 313°
2026-05-07 10:17 15.70208 92.34592 33817 ft 492 kts 313°
2026-05-07 10:18 15.75036 92.29556 33818 ft 491 kts 313°
2026-05-07 10:18 15.79856 92.24525 33817 ft 491 kts 313°
2026-05-07 10:19 15.84670 92.19497 33813 ft 491 kts 312°
2026-05-07 10:19 15.89484 92.14465 33817 ft 490 kts 312°
2026-05-07 10:20 15.94295 92.09433 33819 ft 490 kts 312°
2026-05-07 10:20 15.99103 92.04398 33824 ft 490 kts 312°
2026-05-07 10:21 16.03912 91.99362 33821 ft 491 kts 312°
2026-05-07 10:21 16.08721 91.94326 33819 ft 491 kts 312°
2026-05-07 10:22 16.13507 91.89313 33822 ft 491 kts 312°
2026-05-07 10:22 16.18325 91.84261 33826 ft 492 kts 312°
2026-05-07 10:23 16.23146 91.79200 33824 ft 492 kts 312°
2026-05-07 10:23 16.27964 91.74139 33823 ft 492 kts 312°
2026-05-07 10:24 16.32780 91.69075 33828 ft 492 kts 312°
2026-05-07 10:24 16.37603 91.64002 33824 ft 492 kts 312°
2026-05-07 10:25 16.42391 91.58961 33827 ft 492 kts 312°
2026-05-07 10:25 16.47207 91.53887 33826 ft 492 kts 312°
2026-05-07 10:26 16.52019 91.48813 33828 ft 492 kts 312°
2026-05-07 10:26 16.56822 91.43745 33830 ft 491 kts 311°
2026-05-07 10:27 16.61632 91.38666 33822 ft 491 kts 311°
2026-05-07 10:27 16.66430 91.33595 33828 ft 491 kts 311°
2026-05-07 10:28 16.71222 91.28528 33828 ft 490 kts 311°
2026-05-07 10:28 16.75976 91.23495 33830 ft 490 kts 311°
2026-05-07 10:29 16.80757 91.18432 33830 ft 489 kts 311°
2026-05-07 10:29 16.85538 91.13364 33831 ft 489 kts 311°
2026-05-07 10:30 16.92692 91.05774 33831 ft 489 kts 311°
2026-05-07 10:30 16.97462 91.00707 33829 ft 489 kts 311°
2026-05-07 10:31 17.02231 90.95638 33832 ft 488 kts 311°
2026-05-07 10:31 17.06993 90.90573 33829 ft 488 kts 311°
2026-05-07 10:32 17.11719 90.85542 33832 ft 488 kts 311°
2026-05-07 10:32 17.16475 90.80475 33830 ft 488 kts 311°
2026-05-07 10:33 17.21230 90.75405 33832 ft 488 kts 311°
2026-05-07 10:33 17.25986 90.70330 33831 ft 487 kts 311°
2026-05-07 10:34 17.30728 90.65266 33834 ft 487 kts 311°
2026-05-07 10:34 17.35473 90.60193 33833 ft 487 kts 311°
2026-05-07 10:35 17.40212 90.55125 33837 ft 487 kts 311°
2026-05-07 10:35 17.44994 90.50081 33836 ft 488 kts 311°
2026-05-07 10:36 17.49781 90.45104 33836 ft 488 kts 311°
2026-05-07 10:36 17.54606 90.40082 33838 ft 488 kts 311°
2026-05-07 10:37 17.59419 90.35054 33836 ft 488 kts 311°
2026-05-07 10:37 17.64225 90.30023 33835 ft 488 kts 311°
2026-05-07 10:38 17.69031 90.24987 33835 ft 488 kts 311°
2026-05-07 10:38 17.73843 90.19941 33834 ft 488 kts 311°
2026-05-07 10:39 17.78619 90.14929 33833 ft 488 kts 311°
2026-05-07 10:39 17.83422 90.09886 33834 ft 488 kts 311°
2026-05-07 10:40 17.88218 90.04845 33838 ft 488 kts 311°
2026-05-07 10:40 17.93014 89.99801 33813 ft 487 kts 311°
2026-05-07 10:41 17.97799 89.94764 33828 ft 487 kts 311°
2026-05-07 10:41 18.02578 89.89728 33836 ft 486 kts 311°
2026-05-07 10:42 18.07362 89.84685 33835 ft 486 kts 311°
2026-05-07 10:42 18.11333 89.80493 33835 ft 486 kts 311°
2026-05-07 10:43 18.16113 89.75446 33835 ft 487 kts 311°
2026-05-07 10:43 18.21667 89.69575 33836 ft 487 kts 311°
2026-05-07 10:44 18.25666 89.65346 33839 ft 487 kts 311°
2026-05-07 10:44 18.30446 89.60285 33839 ft 487 kts 311°
2026-05-07 10:45 18.35187 89.55262 33838 ft 487 kts 311°
2026-05-07 10:45 18.39956 89.50205 33837 ft 486 kts 311°
2026-05-07 10:46 18.44725 89.45144 33838 ft 486 kts 310°
2026-05-07 10:46 18.49494 89.40079 33838 ft 486 kts 310°
2026-05-07 10:47 18.54256 89.35016 33840 ft 486 kts 310°
2026-05-07 10:47 18.59015 89.29954 33837 ft 486 kts 310°
2026-05-07 10:48 18.63773 89.24887 33844 ft 486 kts 310°
2026-05-07 10:48 18.68530 89.19817 33840 ft 486 kts 310°
2026-05-07 10:49 18.73251 89.14781 33840 ft 485 kts 310°
2026-05-07 10:49 18.77999 89.09713 33840 ft 485 kts 310°
2026-05-07 10:50 18.82746 89.04641 33838 ft 485 kts 310°
2026-05-07 10:50 18.87492 88.99566 33838 ft 485 kts 310°
2026-05-07 10:51 18.92239 88.94485 33841 ft 485 kts 310°
2026-05-07 10:51 18.96971 88.89415 33840 ft 485 kts 310°
2026-05-07 10:52 19.01704 88.84341 33841 ft 485 kts 310°
2026-05-07 10:52 19.06413 88.79287 33839 ft 485 kts 310°
2026-05-07 10:53 19.11150 88.74199 33842 ft 485 kts 310°
2026-05-07 10:53 19.15883 88.69110 33842 ft 485 kts 310°
2026-05-07 10:54 19.20588 88.64010 33829 ft 484 kts 309°
2026-05-07 10:54 19.25201 88.58822 33844 ft 483 kts 309°
2026-05-07 10:55 19.29791 88.53617 33829 ft 483 kts 309°
2026-05-07 10:55 19.34383 88.48426 33832 ft 483 kts 309°
2026-05-07 10:56 19.38985 88.43237 33847 ft 483 kts 309°
2026-05-07 10:56 19.43586 88.38048 33846 ft 483 kts 309°
2026-05-07 10:57 19.48150 88.32895 33832 ft 482 kts 309°
2026-05-07 10:57 19.52739 88.27708 33830 ft 482 kts 308°
2026-05-07 10:58 19.57326 88.22520 33851 ft 482 kts 308°
2026-05-07 10:58 19.61919 88.17319 33835 ft 482 kts 308°
2026-05-07 10:59 19.66501 88.12126 33832 ft 482 kts 308°
2026-05-07 10:59 19.71081 88.06932 33833 ft 482 kts 308°
2026-05-07 11:00 19.75667 88.01725 33831 ft 482 kts 308°
2026-05-07 11:00 19.80247 87.96521 33829 ft 482 kts 308°
2026-05-07 11:01 19.84801 87.91341 33834 ft 482 kts 308°
2026-05-07 11:01 19.89376 87.86133 33832 ft 482 kts 308°
2026-05-07 11:02 19.93956 87.80914 33828 ft 482 kts 308°
2026-05-07 11:02 19.98534 87.75693 33829 ft 482 kts 308°
2026-05-07 11:03 20.03105 87.70475 33821 ft 482 kts 308°
2026-05-07 11:03 20.07680 87.65248 33830 ft 482 kts 308°
2026-05-07 11:04 20.12249 87.60022 33831 ft 482 kts 308°
2026-05-07 11:04 20.16822 87.54788 33829 ft 482 kts 307°
2026-05-07 11:05 20.21356 87.49593 33821 ft 482 kts 307°
2026-05-07 11:05 20.25921 87.44358 33820 ft 482 kts 307°
2026-05-07 11:06 20.30478 87.39127 33818 ft 482 kts 307°
2026-05-07 11:06 20.35033 87.33892 33818 ft 481 kts 307°
2026-05-07 11:07 20.39593 87.28648 33814 ft 481 kts 307°
2026-05-07 11:07 20.44141 87.23412 33814 ft 480 kts 307°
2026-05-07 11:08 20.48671 87.18182 33818 ft 480 kts 307°
2026-05-07 11:08 20.53153 87.12920 33814 ft 479 kts 307°
2026-05-07 11:09 20.57597 87.07686 33813 ft 478 kts 307°
2026-05-07 11:09 20.62063 87.02434 33813 ft 477 kts 307°
2026-05-07 11:10 20.66536 86.97195 33807 ft 477 kts 307°
2026-05-07 11:10 20.71045 86.91996 33805 ft 477 kts 307°
2026-05-07 11:11 20.75555 86.86789 33810 ft 476 kts 307°
2026-05-07 11:11 20.80050 86.81580 33803 ft 476 kts 307°
2026-05-07 11:12 20.84560 86.76387 33799 ft 476 kts 308°
2026-05-07 11:12 20.89124 86.71253 33800 ft 477 kts 308°
2026-05-07 11:13 20.93702 86.66115 33796 ft 476 kts 308°
2026-05-07 11:13 20.98272 86.60967 33800 ft 476 kts 308°
2026-05-07 11:14 21.02798 86.55852 33798 ft 476 kts 308°
2026-05-07 11:14 21.07347 86.50703 33791 ft 476 kts 308°
2026-05-07 11:15 21.11898 86.45549 33797 ft 475 kts 308°
2026-05-07 11:15 21.16435 86.40405 33804 ft 474 kts 308°
2026-05-07 11:16 21.20962 86.35268 33809 ft 473 kts 308°
2026-05-07 11:16 21.25481 86.30135 33816 ft 472 kts 308°
2026-05-07 11:17 21.29984 86.25015 33828 ft 472 kts 308°
2026-05-07 11:17 21.34490 86.19887 33822 ft 471 kts 308°
2026-05-07 11:18 21.38972 86.14781 33841 ft 470 kts 308°
2026-05-07 11:18 21.43447 86.09679 33837 ft 469 kts 308°
2026-05-07 11:19 21.47897 86.04600 33842 ft 469 kts 308°
2026-05-07 11:19 21.52360 85.99501 33844 ft 468 kts 308°
2026-05-07 11:20 21.56820 85.94402 33844 ft 468 kts 308°
2026-05-07 11:20 21.61273 85.89304 33850 ft 467 kts 307°
2026-05-07 11:21 21.65717 85.84212 33847 ft 467 kts 307°
2026-05-07 11:21 21.70157 85.79122 33846 ft 466 kts 307°
2026-05-07 11:22 21.74593 85.74029 33847 ft 466 kts 307°
2026-05-07 11:22 21.79023 85.68939 33848 ft 466 kts 307°
2026-05-07 11:23 21.83450 85.63847 33856 ft 466 kts 307°
2026-05-07 11:23 21.87845 85.58786 33851 ft 466 kts 307°
2026-05-07 11:24 21.92270 85.53687 33856 ft 466 kts 307°
2026-05-07 11:24 21.96696 85.48582 33852 ft 466 kts 307°
2026-05-07 11:25 22.01119 85.43473 33858 ft 466 kts 307°
2026-05-07 11:25 22.05544 85.38360 33853 ft 466 kts 307°
2026-05-07 11:26 22.09970 85.33240 33850 ft 466 kts 307°
2026-05-07 11:26 22.14391 85.28120 33847 ft 466 kts 307°
2026-05-07 11:27 22.18779 85.23033 33847 ft 466 kts 306°
2026-05-07 11:27 22.23194 85.17910 33849 ft 465 kts 306°
2026-05-07 11:28 22.27597 85.12795 33834 ft 465 kts 306°
2026-05-07 11:28 22.31259 85.08537 33821 ft 465 kts 306°
2026-05-07 11:29 22.35659 85.03418 33821 ft 464 kts 306°
2026-05-07 11:29 22.40056 84.98296 33810 ft 464 kts 306°
2026-05-07 11:30 22.44443 84.93179 33811 ft 464 kts 306°
2026-05-07 11:30 22.48832 84.88056 33812 ft 464 kts 306°
2026-05-07 11:31 22.53222 84.82928 33826 ft 464 kts 306°
2026-05-07 11:31 22.57630 84.77862 33848 ft 465 kts 307°
2026-05-07 11:32 22.64300 84.70242 33865 ft 465 kts 307°
2026-05-07 11:33 22.68738 84.65148 33866 ft 465 kts 307°
2026-05-07 11:33 22.73174 84.60047 33864 ft 465 kts 307°
2026-05-07 11:34 22.77609 84.54947 33878 ft 465 kts 306°
2026-05-07 11:34 22.82047 84.49833 33879 ft 466 kts 306°
2026-05-07 11:35 22.86483 84.44717 33879 ft 466 kts 306°
2026-05-07 11:35 22.90925 84.39587 33888 ft 465 kts 306°
2026-05-07 11:36 22.95329 84.34499 33876 ft 464 kts 306°
2026-05-07 11:36 22.99750 84.29384 33886 ft 463 kts 306°
2026-05-07 11:37 23.04156 84.24280 33883 ft 463 kts 306°
2026-05-07 11:37 23.08556 84.19178 33891 ft 462 kts 306°
2026-05-07 11:38 23.12949 84.14080 33885 ft 461 kts 306°
2026-05-07 11:38 23.17332 84.08986 33894 ft 461 kts 306°
2026-05-07 11:39 23.21686 84.03922 33895 ft 461 kts 306°
2026-05-07 11:39 23.26068 83.98818 33891 ft 461 kts 306°
2026-05-07 11:40 23.30446 83.93718 33897 ft 461 kts 306°
2026-05-07 11:40 23.34817 83.88618 33890 ft 460 kts 306°
2026-05-07 11:41 23.39180 83.83522 33883 ft 460 kts 306°
2026-05-07 11:41 23.43540 83.78425 33870 ft 459 kts 306°
2026-05-07 11:42 23.47883 83.73343 33878 ft 458 kts 306°
2026-05-07 11:42 23.52193 83.68292 33865 ft 458 kts 306°
2026-05-07 11:43 23.56524 83.63214 33861 ft 457 kts 306°
2026-05-07 11:43 23.60855 83.58127 33857 ft 457 kts 306°
2026-05-07 11:44 23.65179 83.53044 33850 ft 457 kts 306°
2026-05-07 11:44 23.69505 83.47954 33851 ft 457 kts 306°
2026-05-07 11:45 23.73787 83.42832 33830 ft 454 kts 303°
2026-05-07 11:45 23.77707 83.37431 33832 ft 453 kts 301°
2026-05-07 11:46 23.81555 83.32047 33837 ft 453 kts 301°
2026-05-07 11:46 23.85448 83.26610 33835 ft 453 kts 301°
2026-05-07 11:47 23.89344 83.21182 33835 ft 453 kts 301°
2026-05-07 11:47 23.93239 83.15758 33827 ft 453 kts 301°
2026-05-07 11:48 23.97131 83.10331 33826 ft 454 kts 301°
2026-05-07 11:48 24.01005 83.04924 33829 ft 454 kts 301°
2026-05-07 11:49 24.04901 82.99479 33827 ft 454 kts 301°
2026-05-07 11:49 24.08791 82.94037 33825 ft 454 kts 301°
2026-05-07 11:50 24.12686 82.88582 33819 ft 454 kts 301°
2026-05-07 11:50 24.16570 82.83136 33820 ft 454 kts 301°
2026-05-07 11:51 24.20461 82.77674 33815 ft 454 kts 301°
2026-05-07 11:51 24.24342 82.72220 33822 ft 454 kts 301°
2026-05-07 11:52 24.28200 82.66794 33817 ft 454 kts 301°
2026-05-07 11:52 24.32084 82.61325 33820 ft 454 kts 301°
2026-05-07 11:53 24.35962 82.55857 33820 ft 454 kts 301°
2026-05-07 11:53 24.39836 82.50387 33826 ft 454 kts 301°
2026-05-07 11:54 24.43711 82.44913 33827 ft 454 kts 301°
2026-05-07 11:54 24.47582 82.39437 33831 ft 453 kts 301°
2026-05-07 11:55 24.51422 82.33999 33835 ft 453 kts 301°
2026-05-07 11:55 24.55286 82.28519 33833 ft 453 kts 301°
2026-05-07 11:56 24.59146 82.23039 33831 ft 453 kts 301°
2026-05-07 11:56 24.63005 82.17555 33834 ft 453 kts 302°
2026-05-07 11:57 24.66867 82.12061 33835 ft 453 kts 302°
2026-05-07 11:57 24.70722 82.06570 33838 ft 453 kts 302°
2026-05-07 11:58 24.74575 82.01076 33839 ft 453 kts 302°
2026-05-07 11:58 24.78425 81.95581 33840 ft 453 kts 302°
2026-05-07 11:59 24.82278 81.90074 33841 ft 453 kts 302°
2026-05-07 11:59 24.86094 81.84613 33837 ft 453 kts 302°
2026-05-07 12:00 24.89932 81.79115 33831 ft 453 kts 302°
2026-05-07 12:00 24.93767 81.73615 33822 ft 452 kts 302°
2026-05-07 12:01 24.97601 81.68113 33816 ft 452 kts 302°
2026-05-07 12:01 25.01420 81.62622 33824 ft 451 kts 303°
2026-05-07 12:02 25.05233 81.57133 33822 ft 450 kts 303°
2026-05-07 12:02 25.09039 81.51650 33817 ft 450 kts 303°
2026-05-07 12:03 25.12832 81.46178 33823 ft 449 kts 303°
2026-05-07 12:03 25.16648 81.40703 33820 ft 449 kts 303°
2026-05-07 12:04 25.20493 81.35258 33825 ft 450 kts 304°
2026-05-07 12:04 25.24328 81.29825 33821 ft 451 kts 304°
2026-05-07 12:05 25.28186 81.24345 33820 ft 452 kts 304°
2026-05-07 12:05 25.32049 81.18844 33831 ft 453 kts 304°
2026-05-07 12:06 25.35922 81.13322 33825 ft 454 kts 304°
2026-05-07 12:06 25.39796 81.07792 33831 ft 455 kts 304°
2026-05-07 12:07 25.43680 81.02241 33837 ft 456 kts 304°
2026-05-07 12:07 25.47559 80.96692 33842 ft 456 kts 304°
2026-05-07 12:08 25.51449 80.91121 33836 ft 457 kts 304°
2026-05-07 12:08 25.55304 80.85592 33838 ft 456 kts 304°
2026-05-07 12:09 25.59191 80.80011 33842 ft 456 kts 304°
2026-05-07 12:09 25.63060 80.74448 33842 ft 456 kts 304°
2026-05-07 12:10 25.66929 80.68879 33853 ft 456 kts 304°
2026-05-07 12:10 25.70777 80.63334 33849 ft 456 kts 304°
2026-05-07 12:11 25.74641 80.57760 33850 ft 456 kts 304°
2026-05-07 12:11 25.78509 80.52173 33853 ft 456 kts 304°
2026-05-07 12:12 25.82362 80.46600 33854 ft 456 kts 304°
2026-05-07 12:12 25.85573 80.41950 33850 ft 456 kts 304°
2026-05-07 12:13 25.89423 80.36370 33858 ft 455 kts 304°
2026-05-07 12:13 25.93272 80.30784 33855 ft 455 kts 304°
2026-05-07 12:14 25.97122 80.25193 33860 ft 455 kts 305°
2026-05-07 12:14 26.01079 80.19700 33862 ft 455 kts 306°
2026-05-07 12:15 26.05094 80.14255 33865 ft 455 kts 307°
2026-05-07 12:15 26.09091 80.08809 33864 ft 455 kts 306°
2026-05-07 12:16 26.13054 80.03374 33864 ft 455 kts 306°
2026-05-07 12:16 26.17035 79.97896 33855 ft 455 kts 306°
2026-05-07 12:17 26.21018 79.92406 33874 ft 455 kts 306°
2026-05-07 12:17 26.25000 79.86912 33875 ft 456 kts 306°
2026-05-07 12:18 26.28985 79.81408 33867 ft 456 kts 306°
2026-05-07 12:18 26.32966 79.75903 33871 ft 456 kts 306°
2026-05-07 12:19 26.36947 79.70390 33875 ft 456 kts 306°
2026-05-07 12:19 26.40927 79.64873 33871 ft 456 kts 306°
2026-05-07 12:20 26.44900 79.59359 33878 ft 456 kts 306°
2026-05-07 12:20 26.48869 79.53843 33876 ft 455 kts 306°
2026-05-07 12:21 26.52835 79.48326 33876 ft 455 kts 306°
2026-05-07 12:21 26.56802 79.42800 33881 ft 455 kts 306°
2026-05-07 12:22 26.60761 79.37278 33873 ft 455 kts 306°
2026-05-07 12:22 26.64722 79.31747 33870 ft 456 kts 306°
2026-05-07 12:23 26.68684 79.26207 33868 ft 456 kts 306°
2026-05-07 12:23 26.72643 79.20664 33864 ft 456 kts 306°
2026-05-07 12:24 26.76609 79.15107 33869 ft 457 kts 306°
2026-05-07 12:24 26.80570 79.09547 33859 ft 457 kts 307°
2026-05-07 12:25 26.84508 79.04014 33856 ft 457 kts 307°
2026-05-07 12:25 26.88474 78.98434 33857 ft 458 kts 307°
2026-05-07 12:26 26.92437 78.92852 33852 ft 458 kts 307°
2026-05-07 12:26 26.96402 78.87259 33845 ft 458 kts 307°
2026-05-07 12:27 27.00364 78.81664 33845 ft 458 kts 307°
2026-05-07 12:27 27.04322 78.76067 33842 ft 458 kts 307°
2026-05-07 12:28 27.08276 78.70469 33839 ft 458 kts 307°
2026-05-07 12:28 27.12230 78.64864 33828 ft 458 kts 307°
2026-05-07 12:29 27.16182 78.59255 33827 ft 458 kts 307°
2026-05-07 12:29 27.20131 78.53642 33837 ft 458 kts 307°
2026-05-07 12:30 27.24059 78.48052 33830 ft 458 kts 307°
2026-05-07 12:30 27.28007 78.42427 33833 ft 459 kts 307°
2026-05-07 12:31 27.31964 78.36782 33819 ft 459 kts 307°
2026-05-07 12:31 27.35915 78.31138 33823 ft 459 kts 307°
2026-05-07 12:32 27.39862 78.25492 33820 ft 459 kts 307°
2026-05-07 12:32 27.43806 78.19844 33822 ft 458 kts 307°
2026-05-07 12:33 27.49689 78.11405 33819 ft 458 kts 307°
2026-05-07 12:33 27.53641 78.05727 33817 ft 457 kts 307°
2026-05-07 12:34 27.57534 78.00125 33818 ft 457 kts 307°
2026-05-07 12:34 27.61455 77.94478 33820 ft 457 kts 307°
2026-05-07 12:35 27.65363 77.88841 33818 ft 457 kts 307°
2026-05-07 12:35 27.69276 77.83190 33818 ft 457 kts 307°
2026-05-07 12:36 27.73183 77.77538 33821 ft 457 kts 307°
2026-05-07 12:36 27.77094 77.71875 33818 ft 457 kts 308°
2026-05-07 12:37 27.81002 77.66209 33816 ft 457 kts 308°
2026-05-07 12:37 27.84902 77.60546 33820 ft 457 kts 308°
2026-05-07 12:38 27.88808 77.54869 33819 ft 457 kts 308°
2026-05-07 12:38 27.92703 77.49199 33817 ft 457 kts 308°
2026-05-07 12:39 27.96604 77.43512 33820 ft 456 kts 308°
2026-05-07 12:39 28.00490 77.37841 33814 ft 456 kts 308°
2026-05-07 12:40 28.04373 77.32166 33817 ft 456 kts 308°
2026-05-07 12:40 28.08250 77.26493 33816 ft 455 kts 308°
2026-05-07 12:41 28.12099 77.20852 33825 ft 455 kts 308°
2026-05-07 12:41 28.15967 77.15177 33820 ft 455 kts 308°
2026-05-07 12:42 28.19831 77.09500 33822 ft 454 kts 308°
2026-05-07 12:42 28.23636 77.03903 33824 ft 454 kts 308°
2026-05-07 12:43 28.27267 76.98554 33829 ft 454 kts 308°
2026-05-07 12:43 28.31126 76.92862 33820 ft 454 kts 308°
2026-05-07 12:44 28.34946 76.87220 33824 ft 453 kts 308°
2026-05-07 12:44 28.38781 76.81549 33824 ft 452 kts 308°
2026-05-07 12:45 28.42609 76.75881 33817 ft 451 kts 308°
2026-05-07 12:45 28.46429 76.70216 33815 ft 451 kts 308°
2026-05-07 12:46 28.50237 76.64563 33812 ft 450 kts 308°
2026-05-07 12:46 28.54040 76.58908 33807 ft 450 kts 308°
2026-05-07 12:47 28.57840 76.53250 33808 ft 450 kts 308°
2026-05-07 12:47 28.61647 76.47575 33812 ft 452 kts 308°
2026-05-07 12:48 28.65441 76.41912 33813 ft 453 kts 308°
2026-05-07 12:48 28.69267 76.36193 33812 ft 455 kts 308°
2026-05-07 12:49 28.73112 76.30437 33820 ft 456 kts 308°
2026-05-07 12:49 28.76968 76.24657 33821 ft 458 kts 308°
2026-05-07 12:50 28.80829 76.18862 33821 ft 459 kts 308°
2026-05-07 12:50 28.84700 76.13043 33826 ft 460 kts 308°
2026-05-07 12:51 28.88569 76.07220 33820 ft 460 kts 308°
2026-05-07 12:51 28.92411 76.01429 33817 ft 460 kts 308°
2026-05-07 12:52 28.96277 75.95594 33821 ft 460 kts 308°
2026-05-07 12:52 29.00138 75.89757 33813 ft 460 kts 308°
2026-05-07 12:53 29.03994 75.83922 33808 ft 460 kts 308°
2026-05-07 12:53 29.07838 75.78095 33806 ft 459 kts 308°
2026-05-07 12:54 29.11032 75.73247 33804 ft 459 kts 308°
2026-05-07 12:54 29.14866 75.67421 33798 ft 457 kts 308°
2026-05-07 12:55 29.19306 75.60663 33792 ft 456 kts 308°
2026-05-07 12:55 29.22494 75.55804 33792 ft 454 kts 308°
2026-05-07 12:56 29.26254 75.50064 33790 ft 453 kts 308°
2026-05-07 12:56 29.30051 75.44333 33778 ft 449 kts 313°
2026-05-07 12:57 29.32382 75.41968 33784 ft 447 kts 326°
2026-05-07 12:57 29.35086 75.40210 33788 ft 448 kts 334°
2026-05-07 12:57 29.38019 75.38962 33772 ft 452 kts 345°
2026-05-07 12:57 29.41120 75.38382 33804 ft 451 kts 349°
2026-05-07 12:58 29.47388 75.37469 33788 ft 455 kts 350°
2026-05-07 12:58 29.53684 75.36534 33791 ft 457 kts 349°
2026-05-07 12:59 29.59996 75.35544 33784 ft 458 kts 349°
2026-05-07 12:59 29.66319 75.34526 33783 ft 458 kts 349°
2026-05-07 13:00 29.72636 75.33504 33778 ft 458 kts 349°
2026-05-07 13:00 29.78908 75.32489 33782 ft 457 kts 349°
2026-05-07 13:01 29.85196 75.31471 33782 ft 456 kts 349°
2026-05-07 13:01 29.91483 75.30452 33783 ft 455 kts 349°
2026-05-07 13:02 29.97757 75.29434 33782 ft 455 kts 349°
2026-05-07 13:02 30.03987 75.28422 33782 ft 454 kts 349°
2026-05-07 13:03 30.10252 75.27402 33780 ft 454 kts 349°
2026-05-07 13:03 30.16514 75.26383 33788 ft 454 kts 349°
2026-05-07 13:04 30.22781 75.25360 33793 ft 455 kts 350°
2026-05-07 13:04 30.29060 75.24335 33786 ft 456 kts 350°
2026-05-07 13:05 30.35364 75.23304 33790 ft 457 kts 350°
2026-05-07 13:05 30.41670 75.22272 33788 ft 458 kts 350°
2026-05-07 13:06 30.47983 75.21237 33788 ft 458 kts 350°
2026-05-07 13:06 30.54301 75.20200 33782 ft 459 kts 350°
2026-05-07 13:07 30.60637 75.19158 33785 ft 460 kts 350°
2026-05-07 13:07 30.66940 75.18121 33783 ft 460 kts 350°
2026-05-07 13:08 30.73282 75.17075 33784 ft 461 kts 350°
2026-05-07 13:08 30.79427 75.15204 33792 ft 457 kts 334°
2026-05-07 13:09 30.84811 75.11312 33787 ft 457 kts 319°
2026-05-07 13:09 30.89456 75.06229 33781 ft 459 kts 317°
2026-05-07 13:10 30.94065 75.01089 33775 ft 459 kts 317°
2026-05-07 13:10 30.98724 74.95963 33779 ft 460 kts 318°
2026-05-07 13:11 31.03390 74.90864 33772 ft 460 kts 318°
2026-05-07 13:11 31.08053 74.85770 33775 ft 459 kts 318°
2026-05-07 13:12 31.12718 74.80663 33773 ft 459 kts 318°
2026-05-07 13:12 31.17370 74.75562 33774 ft 459 kts 318°
2026-05-07 13:13 31.21990 74.70488 33779 ft 459 kts 318°
2026-05-07 13:13 31.26641 74.65373 33773 ft 459 kts 318°
2026-05-07 13:14 31.31292 74.60250 33788 ft 459 kts 318°
2026-05-07 13:14 31.36022 74.55249 33791 ft 458 kts 323°
2026-05-07 13:15 31.41077 74.50718 33803 ft 458 kts 323°
2026-05-07 13:15 31.46152 74.46207 33807 ft 458 kts 323°
2026-05-07 13:16 31.51225 74.41664 33795 ft 458 kts 323°
2026-05-07 13:16 31.56248 74.37140 33808 ft 458 kts 323°
2026-05-07 13:17 31.61298 74.32579 33797 ft 458 kts 323°
2026-05-07 13:17 31.66349 74.28012 33801 ft 458 kts 323°
2026-05-07 13:18 31.71402 74.23438 33792 ft 458 kts 323°
2026-05-07 13:18 31.76449 74.18863 33798 ft 458 kts 323°
2026-05-07 13:19 31.81496 74.14280 33789 ft 458 kts 323°
2026-05-07 13:19 31.86536 74.09699 33795 ft 458 kts 323°
2026-05-07 13:20 31.91567 74.05118 33792 ft 457 kts 323°
2026-05-07 13:20 31.96600 74.00530 33792 ft 457 kts 323°
2026-05-07 13:21 32.01624 73.95943 33794 ft 456 kts 323°
2026-05-07 13:21 32.06639 73.91358 33789 ft 456 kts 323°
2026-05-07 13:22 32.11660 73.86761 33802 ft 456 kts 323°
2026-05-07 13:22 32.16636 73.82198 33799 ft 456 kts 323°
2026-05-07 13:23 32.21642 73.77601 33800 ft 455 kts 323°
2026-05-07 13:23 32.26644 73.73002 33799 ft 455 kts 323°
2026-05-07 13:24 32.31636 73.68405 33807 ft 454 kts 323°
2026-05-07 13:24 32.36617 73.63811 33810 ft 454 kts 323°
2026-05-07 13:25 32.41598 73.59211 33810 ft 454 kts 323°
2026-05-07 13:25 32.46583 73.54601 33805 ft 453 kts 323°
2026-05-07 13:26 32.51554 73.49997 33815 ft 453 kts 322°
2026-05-07 13:26 32.56514 73.45396 33812 ft 453 kts 322°
2026-05-07 13:27 32.61477 73.40785 33814 ft 453 kts 322°
2026-05-07 13:27 32.66430 73.36177 33811 ft 452 kts 322°
2026-05-07 13:28 32.71388 73.31559 33823 ft 452 kts 322°
2026-05-07 13:28 32.76071 73.26586 33834 ft 453 kts 314°
2026-05-07 13:29 32.80017 73.20793 33830 ft 455 kts 306°
2026-05-07 13:29 32.83505 73.14503 33847 ft 455 kts 305°
2026-05-07 13:30 32.86957 73.08193 33848 ft 454 kts 305°
2026-05-07 13:30 32.90424 73.01895 33843 ft 454 kts 305°
2026-05-07 13:31 32.93898 72.95607 33841 ft 455 kts 305°
2026-05-07 13:31 32.97377 72.89309 33843 ft 455 kts 305°
2026-05-07 13:32 33.00853 72.83005 33837 ft 455 kts 305°
2026-05-07 13:32 33.04327 72.76696 33831 ft 455 kts 305°
2026-05-07 13:33 33.07798 72.70377 33831 ft 455 kts 305°
2026-05-07 13:33 33.11272 72.64042 33825 ft 455 kts 305°
2026-05-07 13:34 33.16449 72.54584 33818 ft 456 kts 305°
2026-05-07 13:35 33.19913 72.48241 33809 ft 456 kts 305°
2026-05-07 13:35 33.22817 72.42914 33810 ft 456 kts 305°
2026-05-07 13:36 33.26277 72.36559 33804 ft 457 kts 305°
2026-05-07 13:36 33.29739 72.30189 33796 ft 457 kts 304°
2026-05-07 13:37 33.33178 72.23851 33793 ft 457 kts 304°
2026-05-07 13:37 33.36638 72.17461 33790 ft 457 kts 304°
2026-05-07 13:38 33.40094 72.11067 33792 ft 457 kts 304°
2026-05-07 13:38 33.43554 72.04657 33783 ft 457 kts 304°
2026-05-07 13:39 33.47006 71.98248 33789 ft 458 kts 304°
2026-05-07 13:39 33.50431 71.91880 33785 ft 458 kts 304°
2026-05-07 13:40 33.52927 71.84890 33797 ft 462 kts 285°
2026-05-07 13:40 33.53471 71.77179 33790 ft 469 kts 270°
2026-05-07 13:41 33.52946 71.69369 33786 ft 471 kts 268°
2026-05-07 13:41 33.52399 71.61537 33781 ft 471 kts 269°
2026-05-07 13:42 33.51906 71.53706 33794 ft 470 kts 269°
2026-05-07 13:42 33.51435 71.45887 33799 ft 469 kts 269°
2026-05-07 13:43 33.50964 71.38135 33805 ft 469 kts 269°
2026-05-07 13:43 33.50484 71.30350 33815 ft 468 kts 269°
2026-05-07 13:44 33.49999 71.22578 33801 ft 467 kts 269°
2026-05-07 13:44 33.49510 71.14827 33823 ft 467 kts 269°
2026-05-07 13:45 33.49026 71.07072 33836 ft 464 kts 271°
2026-05-07 13:45 33.49312 71.03250 33842 ft 457 kts 287°
2026-05-07 13:45 33.50430 70.99715 33861 ft 454 kts 299°
2026-05-07 13:45 33.52118 70.96520 33855 ft 453 kts 310°
2026-05-07 13:46 33.54342 70.93868 33882 ft 450 kts 317°
2026-05-07 13:46 33.58973 70.88821 33942 ft 455 kts 317°
2026-05-07 13:46 33.61314 70.86242 34191 ft 455 kts 317°
2026-05-07 13:47 33.63621 70.83671 34623 ft 450 kts 317°
2026-05-07 13:47 33.65904 70.81106 34978 ft 448 kts 316°
2026-05-07 13:47 33.68171 70.78547 35275 ft 447 kts 316°
2026-05-07 13:47 33.70427 70.75992 35504 ft 447 kts 316°
2026-05-07 13:48 33.72690 70.73428 35767 ft 446 kts 316°
2026-05-07 13:48 33.77223 70.68288 35894 ft 448 kts 316°
2026-05-07 13:49 33.81745 70.63155 35922 ft 446 kts 316°
2026-05-07 13:49 33.86255 70.58027 35939 ft 445 kts 316°
2026-05-07 13:50 33.90714 70.52855 35903 ft 444 kts 312°
2026-05-07 13:50 33.94491 70.47001 35918 ft 443 kts 304°
2026-05-07 13:51 33.97551 70.40562 35921 ft 448 kts 299°
2026-05-07 13:51 34.00452 70.33868 35927 ft 453 kts 298°
2026-05-07 13:52 34.03379 70.27137 35919 ft 450 kts 298°
2026-05-07 13:52 34.06280 70.20510 35915 ft 444 kts 299°
2026-05-07 13:53 34.09148 70.13965 35917 ft 440 kts 299°
2026-05-07 13:53 34.12015 70.07414 35898 ft 446 kts 298°
2026-05-07 13:54 34.14917 70.00761 35922 ft 448 kts 298°
2026-05-07 13:54 34.17824 69.94092 35928 ft 448 kts 298°
2026-05-07 13:55 34.20717 69.87414 35924 ft 449 kts 298°
2026-05-07 13:55 34.23601 69.80736 35927 ft 448 kts 298°
2026-05-07 13:56 34.26487 69.74042 35930 ft 448 kts 298°
2026-05-07 13:56 34.29361 69.67362 35925 ft 447 kts 298°
2026-05-07 13:57 34.32227 69.60690 35930 ft 446 kts 298°
2026-05-07 13:57 34.35062 69.54076 35919 ft 445 kts 298°
2026-05-07 13:58 34.37913 69.47412 35915 ft 445 kts 298°
2026-05-07 13:58 34.40757 69.40752 35903 ft 445 kts 298°
2026-05-07 13:59 34.43599 69.34084 35896 ft 445 kts 298°
2026-05-07 13:59 34.46438 69.27409 35899 ft 446 kts 298°
2026-05-07 14:00 34.49285 69.20723 35897 ft 445 kts 300°
2026-05-07 14:00 34.53131 69.14950 35919 ft 445 kts 316°
2026-05-07 14:01 34.58203 69.10603 35922 ft 448 kts 329°
2026-05-07 14:01 34.63745 69.07091 35925 ft 450 kts 330°
2026-05-07 14:02 34.69314 69.03589 35934 ft 450 kts 330°
2026-05-07 14:02 34.74866 69.00034 35951 ft 450 kts 329°
2026-05-07 14:03 34.80357 68.96478 35967 ft 450 kts 329°
2026-05-07 14:03 34.85887 68.92882 36022 ft 451 kts 329°
2026-05-07 14:04 34.91439 68.89270 36030 ft 452 kts 329°
2026-05-07 14:04 34.97000 68.85645 36052 ft 454 kts 329°
2026-05-07 14:05 35.02583 68.82002 36076 ft 454 kts 329°
2026-05-07 14:05 35.08145 68.78367 36075 ft 452 kts 329°
2026-05-07 14:06 35.13667 68.74757 36140 ft 448 kts 329°
2026-05-07 14:06 35.19155 68.71159 36155 ft 445 kts 329°
2026-05-07 14:07 35.24600 68.67582 36151 ft 451 kts 329°
2026-05-07 14:07 35.30176 68.63911 36141 ft 457 kts 329°
2026-05-07 14:08 35.35794 68.60211 36151 ft 459 kts 329°
2026-05-07 14:08 35.41435 68.56490 36139 ft 462 kts 329°
2026-05-07 14:09 35.47068 68.52770 36112 ft 455 kts 329°
2026-05-07 14:09 35.52633 68.49086 36102 ft 454 kts 329°
2026-05-07 14:10 35.58198 68.45398 36077 ft 454 kts 329°
2026-05-07 14:10 35.63751 68.41703 36074 ft 453 kts 329°
2026-05-07 14:11 35.69323 68.37971 36066 ft 453 kts 329°
2026-05-07 14:11 35.74869 68.34245 36060 ft 455 kts 329°
2026-05-07 14:12 35.80438 68.30500 36067 ft 456 kts 329°
2026-05-07 14:12 35.86026 68.26740 36067 ft 458 kts 329°
2026-05-07 14:13 35.91600 68.22982 36065 ft 460 kts 329°
2026-05-07 14:13 35.97224 68.19185 36057 ft 461 kts 329°
2026-05-07 14:14 36.02850 68.15381 36049 ft 461 kts 329°
2026-05-07 14:14 36.08473 68.11573 36037 ft 460 kts 329°
2026-05-07 14:15 36.14081 68.07768 36034 ft 460 kts 329°
2026-05-07 14:15 36.19688 68.03956 36011 ft 460 kts 329°
2026-05-07 14:16 36.24341 68.00790 36005 ft 459 kts 329°
2026-05-07 14:16 36.29939 67.96974 36001 ft 459 kts 329°
2026-05-07 14:17 36.35540 67.93149 35990 ft 459 kts 329°
2026-05-07 14:17 36.41142 67.89317 35979 ft 459 kts 329°
2026-05-07 14:18 36.46751 67.85474 35968 ft 460 kts 329°
2026-05-07 14:18 36.52357 67.81627 35953 ft 461 kts 329°
2026-05-07 14:19 36.57973 67.77765 35946 ft 462 kts 329°
2026-05-07 14:19 36.63599 67.73891 35946 ft 462 kts 329°
2026-05-07 14:20 36.69199 67.70029 35924 ft 463 kts 329°
2026-05-07 14:20 36.74877 67.66113 35915 ft 463 kts 329°
2026-05-07 14:21 36.80523 67.62228 35905 ft 463 kts 329°
2026-05-07 14:21 36.86174 67.58334 35894 ft 463 kts 329°
2026-05-07 14:22 36.91819 67.54434 35884 ft 463 kts 329°
2026-05-07 14:22 36.97466 67.50525 35876 ft 464 kts 329°
2026-05-07 14:23 37.03112 67.46610 35867 ft 464 kts 329°
2026-05-07 14:23 37.08749 67.42695 35862 ft 464 kts 329°
2026-05-07 14:24 37.14400 67.38763 35861 ft 464 kts 329°
2026-05-07 14:24 37.20013 67.34852 35859 ft 464 kts 329°
2026-05-07 14:25 37.25596 67.30771 35858 ft 464 kts 326°
2026-05-07 14:25 37.31106 67.26511 35858 ft 464 kts 326°
2026-05-07 14:26 37.36607 67.22257 35858 ft 465 kts 326°
2026-05-07 14:26 37.42124 67.18020 35861 ft 465 kts 326°
2026-05-07 14:27 37.47666 67.13772 35863 ft 465 kts 326°
2026-05-07 14:27 37.53201 67.09524 35870 ft 466 kts 326°
2026-05-07 14:28 37.58730 67.05270 35878 ft 466 kts 326°
2026-05-07 14:28 37.64231 67.01030 35896 ft 466 kts 326°
2026-05-07 14:29 37.69765 66.96756 35904 ft 466 kts 326°
2026-05-07 14:29 37.75301 66.92474 35927 ft 466 kts 326°
2026-05-07 14:30 37.80841 66.88180 35948 ft 467 kts 326°
2026-05-07 14:30 37.86385 66.83877 35956 ft 467 kts 326°
2026-05-07 14:31 37.91912 66.79579 35978 ft 466 kts 326°
2026-05-07 14:31 37.97434 66.75275 36000 ft 465 kts 326°
2026-05-07 14:32 38.02948 66.70967 36001 ft 466 kts 326°
2026-05-07 14:32 38.08453 66.66601 36000 ft 466 kts 326°
2026-05-07 14:33 38.13918 66.62243 36000 ft 466 kts 325°
2026-05-07 14:33 38.19415 66.57856 36007 ft 466 kts 325°
2026-05-07 14:34 38.24919 66.53460 35991 ft 466 kts 325°
2026-05-07 14:34 38.30419 66.49061 35988 ft 466 kts 325°
2026-05-07 14:35 38.35904 66.44665 35971 ft 466 kts 325°
2026-05-07 14:35 38.41386 66.40264 35957 ft 465 kts 325°
2026-05-07 14:36 38.46864 66.35858 35953 ft 465 kts 325°
2026-05-07 14:36 38.52338 66.31446 35954 ft 465 kts 325°
2026-05-07 14:37 38.57816 66.27024 35928 ft 465 kts 325°
2026-05-07 14:37 38.66041 66.20422 35920 ft 465 kts 326°
2026-05-07 14:38 38.71569 66.16074 35914 ft 466 kts 326°
2026-05-07 14:38 38.77087 66.11728 35911 ft 466 kts 326°
2026-05-07 14:39 38.82602 66.07365 35915 ft 466 kts 326°
2026-05-07 14:39 38.88122 66.02984 35912 ft 466 kts 325°
2026-05-07 14:40 38.93626 65.98605 35909 ft 466 kts 325°
2026-05-07 14:40 38.99136 65.94214 35912 ft 466 kts 325°
2026-05-07 14:41 39.04645 65.89816 35911 ft 466 kts 325°
2026-05-07 14:41 39.10147 65.85416 35911 ft 466 kts 325°
2026-05-07 14:42 39.15655 65.81002 35911 ft 465 kts 325°
2026-05-07 14:42 39.21121 65.76614 35911 ft 465 kts 325°
2026-05-07 14:43 39.26619 65.72192 35912 ft 465 kts 325°
2026-05-07 14:43 39.32114 65.67765 35910 ft 465 kts 325°
2026-05-07 14:44 39.37596 65.63339 35911 ft 465 kts 325°
2026-05-07 14:44 39.43090 65.58896 35912 ft 465 kts 325°
2026-05-07 14:45 39.48577 65.54449 35912 ft 465 kts 325°
2026-05-07 14:45 39.54058 65.50000 35915 ft 465 kts 324°
2026-05-07 14:46 39.59532 65.45546 35913 ft 465 kts 324°
2026-05-07 14:46 39.65010 65.41082 35914 ft 465 kts 324°
2026-05-07 14:47 39.70489 65.36609 35915 ft 465 kts 324°
2026-05-07 14:47 39.75963 65.32131 35914 ft 465 kts 324°
2026-05-07 14:48 39.81411 65.27666 35914 ft 465 kts 324°
2026-05-07 14:48 39.86878 65.23177 35910 ft 465 kts 324°
2026-05-07 14:49 39.92357 65.18668 35913 ft 465 kts 324°
2026-05-07 14:49 39.97829 65.14158 35911 ft 465 kts 324°
2026-05-07 14:50 40.03303 65.09637 35913 ft 466 kts 324°
2026-05-07 14:50 40.08780 65.05105 35914 ft 466 kts 324°
2026-05-07 14:51 40.14225 65.00590 35910 ft 466 kts 324°
2026-05-07 14:51 40.19709 64.96035 35907 ft 467 kts 324°
2026-05-07 14:52 40.25199 64.91465 35900 ft 467 kts 323°
2026-05-07 14:52 40.30682 64.86892 35891 ft 468 kts 323°
2026-05-07 14:53 40.36173 64.82305 35876 ft 468 kts 323°
2026-05-07 14:53 40.41674 64.77699 35878 ft 469 kts 323°
2026-05-07 14:54 40.47142 64.73112 35862 ft 470 kts 323°
2026-05-07 14:54 40.52651 64.68482 35865 ft 470 kts 323°
2026-05-07 14:55 40.57275 64.64588 35866 ft 471 kts 323°
2026-05-07 14:55 40.62802 64.59925 35853 ft 472 kts 323°
2026-05-07 14:56 40.68287 64.55289 35859 ft 472 kts 323°
2026-05-07 14:56 40.73814 64.50608 35857 ft 472 kts 323°
2026-05-07 14:57 40.79342 64.45917 35853 ft 472 kts 323°
2026-05-07 14:57 40.84861 64.41224 35853 ft 471 kts 323°
2026-05-07 14:58 40.90373 64.36527 35845 ft 471 kts 323°
2026-05-07 14:58 40.95882 64.31823 35851 ft 471 kts 323°
2026-05-07 14:59 41.01361 64.27136 35853 ft 471 kts 323°
2026-05-07 14:59 41.06871 64.22413 35845 ft 471 kts 323°
2026-05-07 15:00 41.12377 64.17683 35848 ft 472 kts 323°
2026-05-07 15:00 41.17883 64.12943 35857 ft 472 kts 323°
2026-05-07 15:01 41.23393 64.08191 35853 ft 473 kts 323°
2026-05-07 15:01 41.28882 64.03446 35855 ft 474 kts 323°
2026-05-07 15:02 41.34406 63.98661 35854 ft 475 kts 323°
2026-05-07 15:02 41.39949 63.93853 35850 ft 476 kts 323°
2026-05-07 15:03 41.45499 63.89030 35860 ft 477 kts 322°
2026-05-07 15:03 41.51062 63.84186 35850 ft 477 kts 322°
2026-05-07 15:04 41.56630 63.79326 35856 ft 478 kts 322°
2026-05-07 15:04 41.62194 63.74459 35847 ft 478 kts 322°
2026-05-07 15:05 41.67765 63.69577 35846 ft 479 kts 322°
2026-05-07 15:05 41.73309 63.64707 35846 ft 479 kts 322°
2026-05-07 15:06 41.78837 63.59842 35842 ft 478 kts 322°
2026-05-07 15:06 41.84393 63.54942 35846 ft 478 kts 322°
2026-05-07 15:07 41.89943 63.50036 35844 ft 477 kts 322°
2026-05-07 15:07 41.95491 63.45122 35842 ft 477 kts 322°
2026-05-07 15:08 42.01023 63.40211 35849 ft 477 kts 321°
2026-05-07 15:08 42.06563 63.35283 35851 ft 477 kts 321°
2026-05-07 15:09 42.12103 63.30344 35850 ft 478 kts 321°
2026-05-07 15:09 42.17647 63.25391 35852 ft 478 kts 321°
2026-05-07 15:10 42.23165 63.20450 35859 ft 479 kts 321°
2026-05-07 15:10 42.28713 63.15473 35856 ft 480 kts 321°
2026-05-07 15:11 42.34284 63.10463 35862 ft 480 kts 321°
2026-05-07 15:11 42.39846 63.05452 35861 ft 480 kts 321°
2026-05-07 15:12 42.45408 63.00433 35866 ft 480 kts 321°
2026-05-07 15:12 42.50975 62.95400 35872 ft 480 kts 321°
2026-05-07 15:13 42.56526 62.90370 35868 ft 480 kts 320°
2026-05-07 15:13 42.62087 62.85317 35868 ft 480 kts 320°
2026-05-07 15:14 42.67627 62.80275 35871 ft 479 kts 320°
2026-05-07 15:14 42.73157 62.75230 35875 ft 479 kts 320°
2026-05-07 15:15 42.78650 62.70206 35878 ft 478 kts 320°
2026-05-07 15:15 42.84178 62.65140 35884 ft 478 kts 320°
2026-05-07 15:16 42.89704 62.60065 35884 ft 479 kts 320°
2026-05-07 15:16 42.95224 62.54984 35885 ft 479 kts 320°
2026-05-07 15:17 43.00742 62.49894 35888 ft 479 kts 320°
2026-05-07 15:17 43.06262 62.44791 35879 ft 479 kts 320°
2026-05-07 15:18 43.11820 62.39641 35891 ft 479 kts 320°
2026-05-07 15:18 43.17337 62.34518 35896 ft 479 kts 320°
2026-05-07 15:19 43.22818 62.29417 35901 ft 479 kts 319°
2026-05-07 15:19 43.28335 62.24270 35900 ft 479 kts 319°
2026-05-07 15:20 43.33842 62.19122 35900 ft 479 kts 319°
2026-05-07 15:20 43.39351 62.13960 35903 ft 479 kts 319°
2026-05-07 15:21 43.44832 62.08845 35908 ft 480 kts 321°
2026-05-07 15:21 43.50785 62.04516 35918 ft 487 kts 328°
2026-05-07 15:22 43.56957 62.00619 35918 ft 488 kts 329°
2026-05-07 15:22 43.63134 61.96697 35918 ft 489 kts 328°
2026-05-07 15:23 43.69301 61.92713 35923 ft 489 kts 328°
2026-05-07 15:23 43.75468 61.88699 35922 ft 490 kts 328°
2026-05-07 15:24 43.81646 61.84668 35924 ft 491 kts 328°
2026-05-07 15:24 43.87830 61.80628 35927 ft 492 kts 328°
2026-05-07 15:25 43.94026 61.76571 35923 ft 492 kts 328°
2026-05-07 15:25 44.00224 61.72503 35935 ft 493 kts 328°
2026-05-07 15:26 44.06422 61.68425 35936 ft 493 kts 328°
2026-05-07 15:26 44.12627 61.64334 35938 ft 493 kts 328°
2026-05-07 15:27 44.18835 61.60235 35943 ft 494 kts 328°
2026-05-07 15:27 44.25049 61.56134 35942 ft 494 kts 328°
2026-05-07 15:28 44.31264 61.52023 35932 ft 494 kts 328°
2026-05-07 15:28 44.37442 61.47924 35934 ft 494 kts 328°
2026-05-07 15:29 44.43662 61.43787 35949 ft 495 kts 328°
2026-05-07 15:29 44.49878 61.39642 35947 ft 495 kts 328°
2026-05-07 15:30 44.56100 61.35484 35943 ft 495 kts 328°
2026-05-07 15:30 44.62317 61.31319 35945 ft 496 kts 328°
2026-05-07 15:31 44.68547 61.27136 35940 ft 496 kts 328°
2026-05-07 15:31 44.74778 61.22942 35939 ft 496 kts 328°
2026-05-07 15:32 44.81006 61.18740 35940 ft 497 kts 328°
2026-05-07 15:32 44.87245 61.14520 35941 ft 497 kts 328°
2026-05-07 15:33 44.93478 61.10294 35944 ft 497 kts 328°
2026-05-07 15:33 44.99717 61.06054 35933 ft 498 kts 328°
2026-05-07 15:34 45.05927 61.01822 35932 ft 498 kts 328°
2026-05-07 15:34 45.12176 60.97555 35934 ft 498 kts 328°
2026-05-07 15:35 45.18424 60.93277 35938 ft 499 kts 328°
2026-05-07 15:35 45.23619 60.89713 35934 ft 499 kts 328°
2026-05-07 15:36 45.29876 60.85408 35937 ft 499 kts 328°
2026-05-07 15:36 45.36132 60.81096 35937 ft 500 kts 328°
2026-05-07 15:37 45.42186 60.76380 35931 ft 492 kts 320°
2026-05-07 15:37 45.47480 60.70362 35942 ft 484 kts 311°
2026-05-07 15:38 45.52456 60.63892 35934 ft 484 kts 311°
2026-05-07 15:38 45.57441 60.57401 35934 ft 485 kts 311°
2026-05-07 15:39 45.62449 60.50930 35934 ft 486 kts 311°
2026-05-07 15:39 45.67440 60.44495 35930 ft 486 kts 311°
2026-05-07 15:40 45.72463 60.38004 35928 ft 486 kts 311°
2026-05-07 15:40 45.77487 60.31491 35925 ft 487 kts 311°
2026-05-07 15:41 45.82498 60.24976 35921 ft 487 kts 311°
2026-05-07 15:41 45.87513 60.18440 35922 ft 487 kts 311°
2026-05-07 15:42 45.92526 60.11890 35922 ft 487 kts 311°
2026-05-07 15:42 45.97500 60.05374 35921 ft 487 kts 311°
2026-05-07 15:43 46.02497 59.98811 35923 ft 487 kts 311°
2026-05-07 15:43 46.07499 59.92225 35918 ft 487 kts 311°
2026-05-07 15:44 46.12501 59.85621 35921 ft 487 kts 311°
2026-05-07 15:44 46.17499 59.79004 35913 ft 487 kts 311°
2026-05-07 15:45 46.22492 59.72382 35924 ft 487 kts 311°
2026-05-07 15:45 46.27365 59.65608 35921 ft 486 kts 309°
2026-05-07 15:46 46.34518 59.55219 35930 ft 486 kts 309°
2026-05-07 15:47 46.39304 59.48290 35928 ft 487 kts 309°
2026-05-07 15:47 46.44110 59.41351 35919 ft 487 kts 309°
2026-05-07 15:48 46.48909 59.34414 35923 ft 487 kts 309°
2026-05-07 15:48 46.53670 59.27513 35922 ft 487 kts 309°
2026-05-07 15:49 46.58465 59.20541 35926 ft 487 kts 309°
2026-05-07 15:49 46.63249 59.13565 35927 ft 487 kts 309°
2026-05-07 15:50 46.68040 59.06560 35926 ft 487 kts 309°
2026-05-07 15:50 46.72814 58.99563 35911 ft 487 kts 309°
2026-05-07 15:51 46.77584 58.92552 35914 ft 487 kts 309°
2026-05-07 15:51 46.82348 58.85532 35924 ft 487 kts 309°
2026-05-07 15:52 46.87112 58.78491 35918 ft 487 kts 309°
2026-05-07 15:52 46.91850 58.71472 35923 ft 488 kts 309°
2026-05-07 15:53 46.96618 58.64389 35917 ft 488 kts 309°
2026-05-07 15:53 47.01388 58.57283 35918 ft 489 kts 309°
2026-05-07 15:54 47.06156 58.50162 35919 ft 489 kts 309°
2026-05-07 15:54 47.10921 58.43025 35913 ft 490 kts 309°
2026-05-07 15:55 47.15685 58.35871 35913 ft 490 kts 309°
2026-05-07 15:55 47.20415 58.28746 35911 ft 490 kts 309°
2026-05-07 15:56 47.25181 58.21549 35910 ft 491 kts 309°
2026-05-07 15:56 47.29945 58.14337 35905 ft 491 kts 310°
2026-05-07 15:57 47.34704 58.07122 35904 ft 491 kts 310°
2026-05-07 15:57 47.39464 57.99891 35907 ft 491 kts 310°
2026-05-07 15:58 47.44223 57.92639 35905 ft 491 kts 310°
2026-05-07 15:58 47.48977 57.85373 35900 ft 491 kts 310°
2026-05-07 15:59 47.53725 57.78096 35898 ft 491 kts 310°
2026-05-07 15:59 47.58472 57.70798 35901 ft 491 kts 310°
2026-05-07 16:00 47.63214 57.63492 35901 ft 492 kts 310°
2026-05-07 16:00 47.67951 57.56161 35899 ft 492 kts 310°
2026-05-07 16:01 47.72645 57.48868 35903 ft 492 kts 310°
2026-05-07 16:01 47.77370 57.41504 35890 ft 492 kts 310°
2026-05-07 16:02 47.82079 57.34146 35892 ft 491 kts 310°
2026-05-07 16:02 47.86787 57.26770 35899 ft 492 kts 310°
2026-05-07 16:03 47.91498 57.19368 35899 ft 491 kts 310°
2026-05-07 16:03 47.96198 57.11962 35880 ft 491 kts 310°
2026-05-07 16:04 48.00900 57.04532 35878 ft 492 kts 310°
2026-05-07 16:04 48.05592 56.97097 35879 ft 492 kts 310°
2026-05-07 16:05 48.10254 56.89688 35879 ft 492 kts 310°
2026-05-07 16:05 48.14943 56.82214 35875 ft 492 kts 310°
2026-05-07 16:06 48.19624 56.74733 35873 ft 492 kts 310°
2026-05-07 16:06 48.24299 56.67239 35871 ft 492 kts 310°
2026-05-07 16:07 48.28963 56.59741 35867 ft 492 kts 310°
2026-05-07 16:07 48.33631 56.52216 35869 ft 491 kts 310°
2026-05-07 16:08 48.38294 56.44679 35868 ft 491 kts 310°
2026-05-07 16:08 48.42912 56.37191 35866 ft 491 kts 310°
2026-05-07 16:09 48.47562 56.29627 35863 ft 491 kts 310°
2026-05-07 16:09 48.52210 56.22050 35862 ft 491 kts 310°
2026-05-07 16:10 48.56844 56.14474 35857 ft 491 kts 310°
2026-05-07 16:10 48.61479 56.06879 35858 ft 491 kts 310°
2026-05-07 16:11 48.66111 55.99265 35860 ft 492 kts 310°
2026-05-07 16:11 48.70739 55.91641 35858 ft 492 kts 310°
2026-05-07 16:12 48.75379 55.84007 35852 ft 493 kts 310°
2026-05-07 16:12 48.80017 55.76355 35855 ft 493 kts 310°
2026-05-07 16:13 48.84622 55.68732 35849 ft 493 kts 310°
2026-05-07 16:13 48.89256 55.61017 35846 ft 493 kts 310°
2026-05-07 16:14 48.93870 55.53293 35847 ft 493 kts 310°
2026-05-07 16:14 48.98480 55.45553 35846 ft 493 kts 310°
2026-05-07 16:15 49.03088 55.37798 35845 ft 493 kts 310°
2026-05-07 16:15 49.07691 55.30028 35846 ft 493 kts 310°
2026-05-07 16:16 49.12260 55.22293 35849 ft 493 kts 310°
2026-05-07 16:16 49.16848 55.14505 35848 ft 493 kts 310°
2026-05-07 16:17 49.21428 55.06703 35847 ft 493 kts 310°
2026-05-07 16:17 49.26000 54.98888 35848 ft 492 kts 310°
2026-05-07 16:18 49.30560 54.91070 35845 ft 492 kts 310°
2026-05-07 16:18 49.35130 54.83211 35844 ft 492 kts 310°
2026-05-07 16:19 49.38911 54.76692 35844 ft 492 kts 310°
2026-05-07 16:19 49.44191 54.67561 35847 ft 491 kts 310°
2026-05-07 16:20 49.47985 54.60978 35846 ft 491 kts 310°
2026-05-07 16:20 49.52521 54.53089 35845 ft 491 kts 310°
2026-05-07 16:21 49.57036 54.45211 35844 ft 491 kts 310°
2026-05-07 16:21 49.61524 54.37355 35844 ft 491 kts 310°
2026-05-07 16:22 49.66027 54.29451 35847 ft 491 kts 310°
2026-05-07 16:22 49.70529 54.21523 35852 ft 490 kts 310°
2026-05-07 16:23 49.75020 54.13590 35850 ft 490 kts 310°
2026-05-07 16:23 49.79504 54.05645 35851 ft 490 kts 310°
2026-05-07 16:24 49.83983 53.97685 35847 ft 490 kts 310°
2026-05-07 16:24 49.88460 53.89706 35850 ft 490 kts 310°
2026-05-07 16:25 49.92902 53.81764 35853 ft 490 kts 310°
2026-05-07 16:25 49.97360 53.73765 35852 ft 490 kts 310°
2026-05-07 16:26 50.01814 53.65750 35855 ft 490 kts 310°
2026-05-07 16:26 50.06264 53.57716 35855 ft 490 kts 310°
2026-05-07 16:27 50.10709 53.49667 35856 ft 490 kts 310°
2026-05-07 16:27 50.15147 53.41603 35854 ft 490 kts 310°
2026-05-07 16:28 50.19563 53.33557 35859 ft 491 kts 310°
2026-05-07 16:28 50.23995 53.25455 35864 ft 491 kts 310°
2026-05-07 16:29 50.28433 53.17317 35863 ft 491 kts 310°
2026-05-07 16:29 50.32858 53.09176 35864 ft 491 kts 310°
2026-05-07 16:30 50.37285 53.01008 35864 ft 491 kts 310°
2026-05-07 16:30 50.41702 52.92832 35865 ft 490 kts 310°
2026-05-07 16:31 50.46106 52.84652 35865 ft 490 kts 310°
2026-05-07 16:31 50.50470 52.76523 35864 ft 490 kts 310°
2026-05-07 16:32 50.54852 52.68334 35870 ft 490 kts 310°
2026-05-07 16:32 50.59163 52.60252 35871 ft 490 kts 310°
2026-05-07 16:33 50.63609 52.51890 35872 ft 490 kts 310°
2026-05-07 16:33 50.67984 52.43638 35870 ft 490 kts 310°
2026-05-07 16:34 50.72358 52.35402 35874 ft 490 kts 310°
2026-05-07 16:34 50.76748 52.27173 35873 ft 489 kts 310°
2026-05-07 16:35 50.81128 52.18936 35879 ft 489 kts 310°
2026-05-07 16:35 50.85495 52.10685 35877 ft 489 kts 310°
2026-05-07 16:36 50.89824 52.02475 35876 ft 488 kts 310°
2026-05-07 16:36 50.94166 51.94215 35874 ft 487 kts 310°
2026-05-07 16:37 50.98501 51.85941 35872 ft 487 kts 310°
2026-05-07 16:37 51.02822 51.77670 35865 ft 486 kts 310°
2026-05-07 16:38 51.07135 51.69385 35862 ft 486 kts 310°
2026-05-07 16:38 51.11431 51.61110 35856 ft 485 kts 310°
2026-05-07 16:39 51.15537 51.52666 35860 ft 486 kts 303°
2026-05-07 16:39 51.18875 51.43311 35866 ft 486 kts 299°
2026-05-07 16:40 51.22091 51.33823 35860 ft 486 kts 299°
2026-05-07 16:40 51.25331 51.24345 35870 ft 486 kts 299°
2026-05-07 16:41 51.28589 51.14874 35877 ft 487 kts 299°
2026-05-07 16:41 51.31855 51.05367 35887 ft 487 kts 299°
2026-05-07 16:42 51.35109 50.95855 35889 ft 487 kts 299°
2026-05-07 16:42 51.38330 50.86396 35891 ft 487 kts 299°
2026-05-07 16:43 51.41564 50.76863 35892 ft 487 kts 299°
2026-05-07 16:43 51.44789 50.67317 35895 ft 487 kts 298°
2026-05-07 16:44 51.48012 50.57749 35896 ft 487 kts 298°
2026-05-07 16:44 51.51039 50.48034 35897 ft 487 kts 295°
2026-05-07 16:45 51.53861 50.38121 35896 ft 487 kts 295°
2026-05-07 16:45 51.56648 50.28298 35895 ft 486 kts 295°
2026-05-07 16:46 51.59471 50.18419 35895 ft 486 kts 295°
2026-05-07 16:46 51.62289 50.08543 35898 ft 485 kts 295°
2026-05-07 16:47 51.65095 49.98668 35898 ft 485 kts 295°
2026-05-07 16:47 51.67886 49.88794 35899 ft 484 kts 295°
2026-05-07 16:48 51.70668 49.78904 35898 ft 484 kts 294°
2026-05-07 16:48 51.73438 49.69018 35899 ft 483 kts 294°
2026-05-07 16:49 51.76200 49.59121 35899 ft 483 kts 294°
2026-05-07 16:49 51.78953 49.49212 35903 ft 483 kts 294°
2026-05-07 16:50 51.81695 49.39300 35908 ft 483 kts 294°
2026-05-07 16:50 51.84428 49.29380 35911 ft 483 kts 294°
2026-05-07 16:51 51.87151 49.19452 35912 ft 483 kts 294°
2026-05-07 16:51 51.89848 49.09578 35915 ft 483 kts 294°
2026-05-07 16:52 51.92553 48.99633 35918 ft 483 kts 294°
2026-05-07 16:52 51.95254 48.89660 35920 ft 482 kts 294°
2026-05-07 16:53 51.97942 48.79694 35923 ft 482 kts 294°
2026-05-07 16:53 52.00604 48.69706 35918 ft 481 kts 294°
2026-05-07 16:54 52.03249 48.59721 35922 ft 481 kts 294°
2026-05-07 16:54 52.05886 48.49733 35921 ft 480 kts 293°
2026-05-07 16:55 52.08510 48.39753 35923 ft 480 kts 293°
2026-05-07 16:55 52.11128 48.29754 35923 ft 480 kts 293°
2026-05-07 16:56 52.13732 48.19771 35923 ft 479 kts 293°
2026-05-07 16:56 52.17790 48.04877 35923 ft 479 kts 295°
2026-05-07 16:57 52.20524 47.94975 35925 ft 479 kts 294°
2026-05-07 16:57 52.23235 47.85043 35927 ft 479 kts 294°
2026-05-07 16:58 52.25930 47.75097 35929 ft 479 kts 294°
2026-05-07 16:58 52.28602 47.65190 35930 ft 479 kts 294°
2026-05-07 16:59 52.31282 47.55221 35929 ft 479 kts 294°
2026-05-07 16:59 52.33958 47.45229 35935 ft 480 kts 294°
2026-05-07 17:00 52.36637 47.35221 35937 ft 480 kts 294°
2026-05-07 17:00 52.39306 47.25215 35937 ft 480 kts 294°
2026-05-07 17:01 52.41965 47.15199 35937 ft 479 kts 294°
2026-05-07 17:01 52.44616 47.05167 35939 ft 479 kts 294°
2026-05-07 17:02 52.47256 46.95129 35943 ft 479 kts 294°
2026-05-07 17:02 52.49445 46.86778 35933 ft 479 kts 293°
2026-05-07 17:03 52.52063 46.76721 35940 ft 479 kts 293°
2026-05-07 17:03 52.55078 46.65023 35946 ft 478 kts 293°
2026-05-07 17:04 52.57242 46.56594 35951 ft 478 kts 293°
2026-05-07 17:04 52.59803 46.46585 35941 ft 478 kts 293°
2026-05-07 17:05 52.62371 46.36512 35953 ft 477 kts 293°
2026-05-07 17:05 52.64787 46.26307 35956 ft 477 kts 290°
2026-05-07 17:06 52.67035 46.16020 35953 ft 477 kts 290°
2026-05-07 17:06 52.69293 46.05721 35955 ft 477 kts 290°
2026-05-07 17:07 52.71556 45.95490 35951 ft 477 kts 290°
2026-05-07 17:07 52.73832 45.85190 35954 ft 477 kts 290°
2026-05-07 17:08 52.76096 45.74888 35954 ft 477 kts 290°
2026-05-07 17:08 52.78348 45.64580 35954 ft 477 kts 290°
2026-05-07 17:09 52.80595 45.54249 35951 ft 477 kts 290°
2026-05-07 17:09 52.82827 45.43914 35952 ft 477 kts 290°
2026-05-07 17:10 52.85039 45.33561 35953 ft 477 kts 289°
2026-05-07 17:10 52.87242 45.23199 35957 ft 477 kts 289°
2026-05-07 17:11 52.89423 45.12897 35957 ft 477 kts 289°
2026-05-07 17:11 52.91608 45.02535 35956 ft 476 kts 289°
2026-05-07 17:12 52.93820 44.92185 35957 ft 476 kts 290°
2026-05-07 17:12 52.96144 44.81898 35957 ft 476 kts 291°
2026-05-07 17:13 52.98463 44.71607 35952 ft 476 kts 290°
2026-05-07 17:13 53.00755 44.61299 35954 ft 476 kts 290°
2026-05-07 17:14 53.03031 44.50985 35954 ft 476 kts 290°
2026-05-07 17:14 53.05302 44.40656 35957 ft 476 kts 290°
2026-05-07 17:15 53.07565 44.30312 35950 ft 476 kts 290°
2026-05-07 17:15 53.09819 44.19966 35954 ft 475 kts 290°
2026-05-07 17:16 53.12063 44.09616 35951 ft 475 kts 290°
2026-05-07 17:16 53.14297 43.99258 35949 ft 475 kts 290°
2026-05-07 17:17 53.16522 43.88884 35947 ft 475 kts 290°
2026-05-07 17:17 53.18740 43.78494 35947 ft 475 kts 290°
2026-05-07 17:18 53.20944 43.68117 35941 ft 475 kts 289°
2026-05-07 17:18 53.23140 43.57727 35942 ft 474 kts 289°
2026-05-07 17:19 53.25323 43.47342 35944 ft 474 kts 289°
2026-05-07 17:19 53.27495 43.36953 35938 ft 474 kts 289°
2026-05-07 17:20 53.29644 43.26623 35939 ft 473 kts 289°
2026-05-07 17:20 53.31796 43.16230 35939 ft 473 kts 289°
2026-05-07 17:21 53.33936 43.05832 35936 ft 473 kts 289°
2026-05-07 17:21 53.36069 42.95420 35936 ft 472 kts 289°
2026-05-07 17:22 53.38192 42.84999 35937 ft 472 kts 289°
2026-05-07 17:22 53.40304 42.74578 35939 ft 472 kts 288°
2026-05-07 17:23 53.42406 42.64153 35935 ft 472 kts 288°
2026-05-07 17:23 53.44484 42.53795 35936 ft 472 kts 288°
2026-05-07 17:24 53.46526 42.43334 35932 ft 471 kts 287°
2026-05-07 17:24 53.48377 42.32772 35941 ft 471 kts 286°
2026-05-07 17:25 53.50191 42.22172 35938 ft 471 kts 286°
2026-05-07 17:25 53.52003 42.11666 35937 ft 471 kts 286°
2026-05-07 17:26 53.53829 42.01105 35935 ft 471 kts 286°
2026-05-07 17:26 53.55648 41.90535 35936 ft 470 kts 286°
2026-05-07 17:27 53.57458 41.79956 35934 ft 470 kts 286°
2026-05-07 17:27 53.59256 41.69375 35934 ft 470 kts 285°
2026-05-07 17:28 53.61043 41.58791 35932 ft 470 kts 285°
2026-05-07 17:28 53.62822 41.48192 35930 ft 469 kts 285°
2026-05-07 17:29 53.64576 41.37678 35934 ft 469 kts 285°
2026-05-07 17:29 53.66329 41.27103 35934 ft 469 kts 285°
2026-05-07 17:30 53.68081 41.16476 35929 ft 469 kts 285°
2026-05-07 17:30 53.69820 41.05874 35932 ft 469 kts 285°
2026-05-07 17:31 53.72056 40.95566 35929 ft 468 kts 293°
2026-05-07 17:31 53.74715 40.85516 35931 ft 468 kts 294°
2026-05-07 17:32 53.77360 40.75453 35928 ft 468 kts 293°
2026-05-07 17:32 53.79527 40.67066 35929 ft 468 kts 293°
2026-05-07 17:33 53.82532 40.55326 35927 ft 467 kts 293°
2026-05-07 17:33 53.85107 40.45224 35927 ft 467 kts 293°
2026-05-07 17:34 53.87675 40.35115 35925 ft 467 kts 293°
2026-05-07 17:34 53.90233 40.24993 35925 ft 467 kts 292°
2026-05-07 17:35 53.92782 40.14862 35925 ft 467 kts 292°
2026-05-07 17:35 53.95324 40.04711 35923 ft 467 kts 292°
2026-05-07 17:36 53.97837 39.94632 35920 ft 467 kts 292°
2026-05-07 17:36 54.00358 39.84473 35910 ft 465 kts 292°
2026-05-07 17:37 54.02863 39.74337 35920 ft 464 kts 292°
2026-05-07 17:37 54.05355 39.64204 35915 ft 464 kts 292°
2026-05-07 17:38 54.07849 39.54013 35168 ft 475 kts 292°
2026-05-07 17:38 54.09117 39.48812 34428 ft 475 kts 292°
2026-05-07 17:38 54.10386 39.43595 33531 ft 475 kts 292°
2026-05-07 17:39 54.11649 39.38395 32591 ft 475 kts 292°
2026-05-07 17:39 54.12905 39.33208 31666 ft 474 kts 292°
2026-05-07 17:39 54.14160 39.28014 30728 ft 474 kts 292°
2026-05-07 17:39 54.15411 39.22823 30084 ft 469 kts 292°
2026-05-07 17:40 54.16642 39.17707 29333 ft 464 kts 292°
2026-05-07 17:40 54.17861 39.12623 28664 ft 458 kts 292°
2026-05-07 17:40 54.19045 39.07675 28535 ft 442 kts 292°
2026-05-07 17:40 54.20190 39.02888 28330 ft 429 kts 292°
2026-05-07 17:41 54.21451 38.98446 28306 ft 418 kts 302°
2026-05-07 17:41 54.23248 38.94436 28328 ft 432 kts 312°
2026-05-07 17:41 54.25466 38.90836 28309 ft 447 kts 321°
2026-05-07 17:41 54.28012 38.87675 28314 ft 458 kts 324°
2026-05-07 17:42 54.33331 38.81456 28305 ft 462 kts 324°
2026-05-07 17:42 54.38627 38.75259 28291 ft 459 kts 324°
2026-05-07 17:43 54.43859 38.69025 28297 ft 457 kts 324°
2026-05-07 17:43 54.49068 38.62751 28300 ft 457 kts 323°
2026-05-07 17:44 54.54287 38.56435 28299 ft 459 kts 323°
2026-05-07 17:44 54.59484 38.50128 28300 ft 460 kts 323°
2026-05-07 17:45 54.64282 38.44289 28302 ft 461 kts 323°
2026-05-07 17:45 54.69511 38.37909 28098 ft 457 kts 323°
2026-05-07 17:46 54.72099 38.34744 27741 ft 455 kts 323°
2026-05-07 17:46 54.74682 38.31580 27350 ft 454 kts 323°
2026-05-07 17:46 54.77253 38.28425 26982 ft 453 kts 323°
2026-05-07 17:46 54.79854 38.25228 26646 ft 451 kts 322°
2026-05-07 17:47 54.82366 38.22135 26358 ft 448 kts 322°
2026-05-07 17:47 54.84901 38.19009 26056 ft 446 kts 322°
2026-05-07 17:47 54.87424 38.15894 25755 ft 444 kts 322°
2026-05-07 17:47 54.89937 38.12786 25436 ft 442 kts 322°
2026-05-07 17:48 54.92437 38.09688 25140 ft 440 kts 322°
2026-05-07 17:48 54.94930 38.06594 24842 ft 438 kts 322°
2026-05-07 17:48 54.97402 38.03522 24565 ft 436 kts 322°
2026-05-07 17:48 54.99031 38.01495 24380 ft 435 kts 322°
2026-05-07 17:49 55.01494 37.98427 24098 ft 433 kts 322°
2026-05-07 17:49 55.03937 37.95379 23825 ft 431 kts 321°
2026-05-07 17:49 55.06372 37.92335 23549 ft 429 kts 321°
2026-05-07 17:49 55.08790 37.89308 23248 ft 427 kts 321°
2026-05-07 17:50 55.11197 37.86291 22952 ft 425 kts 321°
2026-05-07 17:50 55.13580 37.83299 22655 ft 423 kts 321°
2026-05-07 17:50 55.15970 37.80295 22362 ft 421 kts 321°
2026-05-07 17:50 55.18301 37.77359 22073 ft 420 kts 321°
2026-05-07 17:51 55.20664 37.74379 21789 ft 418 kts 321°
2026-05-07 17:51 55.23019 37.71405 21526 ft 417 kts 321°
2026-05-07 17:51 55.25370 37.68430 20947 ft 416 kts 321°
2026-05-07 17:51 55.27705 37.65471 20369 ft 413 kts 321°
2026-05-07 17:52 55.30021 37.62535 19808 ft 409 kts 321°
2026-05-07 17:52 55.32293 37.59649 19251 ft 406 kts 321°
2026-05-07 17:52 55.34545 37.56783 18698 ft 403 kts 320°
2026-05-07 17:52 55.36809 37.53899 18125 ft 401 kts 320°
2026-05-07 17:53 55.39044 37.51049 17852 ft 390 kts 320°
2026-05-07 17:53 55.41163 37.48344 17671 ft 378 kts 320°
2026-05-07 17:53 55.43230 37.45700 17503 ft 367 kts 320°
2026-05-07 17:53 55.45260 37.43101 17353 ft 355 kts 320°
2026-05-07 17:54 55.47227 37.40579 17187 ft 344 kts 319°
2026-05-07 17:54 55.49161 37.38097 17057 ft 333 kts 320°
2026-05-07 17:54 55.51163 37.36188 16875 ft 328 kts 337°
2026-05-07 17:54 55.53431 37.35571 16522 ft 332 kts 354°
2026-05-07 17:55 55.55729 37.35564 16184 ft 329 kts 355°
2026-05-07 17:55 55.58015 37.35597 15828 ft 328 kts 355°
2026-05-07 17:55 55.60293 37.35620 15469 ft 326 kts 355°
2026-05-07 17:55 55.62530 37.35626 15126 ft 325 kts 354°
2026-05-07 17:56 55.64791 37.35618 14762 ft 324 kts 354°
2026-05-07 17:56 55.67041 37.35601 14427 ft 323 kts 354°
2026-05-07 17:56 55.69286 37.35579 14079 ft 322 kts 354°
2026-05-07 17:56 55.71390 37.35557 13746 ft 321 kts 354°
2026-05-07 17:57 55.73616 37.35504 13364 ft 320 kts 352°
2026-05-07 17:57 55.74813 37.35394 13172 ft 318 kts 351°
2026-05-07 17:57 55.77734 37.35043 12687 ft 317 kts 350°
2026-05-07 17:57 55.79570 37.34827 12393 ft 316 kts 350°
2026-05-07 17:58 55.81742 37.34585 12054 ft 315 kts 351°
2026-05-07 17:58 55.83922 37.34347 11735 ft 313 kts 350°
2026-05-07 17:58 55.86084 37.34110 11442 ft 309 kts 350°
2026-05-07 17:58 55.88253 37.33871 11154 ft 307 kts 350°
2026-05-07 17:59 55.90348 37.33639 10872 ft 305 kts 350°
2026-05-07 17:59 55.92422 37.33408 10612 ft 305 kts 350°
2026-05-07 17:59 55.94540 37.33173 10349 ft 306 kts 350°
2026-05-07 17:59 55.96661 37.32935 10054 ft 302 kts 348°
2026-05-07 18:00 55.98615 37.32046 9873 ft 277 kts 324°
2026-05-07 18:00 56.00376 37.30626 9504 ft 282 kts 342°
2026-05-07 18:00 56.02366 37.30761 9217 ft 291 kts
2026-05-07 18:00 56.04361 37.31585 8883 ft 297 kts
2026-05-07 18:01 56.06391 37.32270 8525 ft 296 kts
2026-05-07 18:01 56.08427 37.32713 8188 ft 294 kts 359°
2026-05-07 18:01 56.10462 37.33033 7844 ft 294 kts 358°
2026-05-07 18:01 56.12496 37.33315 7551 ft 292 kts 358°
2026-05-07 18:02 56.15954 37.36218 6847 ft 279 kts 50°
2026-05-07 18:02 56.16874 37.39265 6604 ft 281 kts 72°
2026-05-07 18:02 56.17395 37.42656 6342 ft 284 kts 76°
2026-05-07 18:03 56.17890 37.46115 6025 ft 285 kts 76°
2026-05-07 18:03 56.18391 37.49550 5735 ft 284 kts 75°
2026-05-07 18:03 56.18895 37.52968 5441 ft 282 kts 75°
2026-05-07 18:03 56.19296 37.56368 5141 ft 276 kts 90°
2026-05-07 18:04 56.18907 37.59631 4949 ft 262 kts 120°
2026-05-07 18:04 56.17892 37.62225 4829 ft 248 kts 138°
2026-05-07 18:04 56.16703 37.64391 4697 ft 241 kts 139°
2026-05-07 18:04 56.15520 37.66527 4589 ft 245 kts 139°
2026-05-07 18:05 56.14306 37.68730 4491 ft 249 kts 139°
2026-05-07 18:05 56.13103 37.70925 4372 ft 244 kts 138°
2026-05-07 18:05 56.11932 37.73067 4223 ft 236 kts 138°
2026-05-07 18:05 56.10810 37.75121 4113 ft 225 kts 139°
2026-05-07 18:06 56.09646 37.76784 4018 ft 207 kts 163°
2026-05-07 18:06 56.08267 37.77108 3881 ft 197 kts 191°
2026-05-07 18:06 56.06937 37.76545 3738 ft 196 kts 201°
2026-05-07 18:06 56.05651 37.75804 3582 ft 197 kts 201°
2026-05-07 18:07 56.04352 37.75047 3421 ft 195 kts 201°
2026-05-07 18:07 56.03093 37.74300 3259 ft 186 kts 206°
2026-05-07 18:07 56.02126 37.72829 3119 ft 186 kts 243°
2026-05-07 18:07 56.01640 37.70705 2992 ft 183 kts 249°
2026-05-07 18:08 56.01223 37.68647 2801 ft 168 kts 252°
2026-05-07 18:08 56.00909 37.66745 2675 ft 153 kts 255°
2026-05-07 18:08 56.00637 37.64968 2594 ft 144 kts 255°
2026-05-07 18:08 56.00377 37.63235 2586 ft 147 kts 255°
2026-05-07 18:09 56.00113 37.61463 2537 ft 148 kts 255°
2026-05-07 18:09 55.99844 37.59655 2348 ft 152 kts 255°
2026-05-07 18:09 55.99574 37.57842 2138 ft 149 kts 255°
2026-05-07 18:09 55.99309 37.56061 1961 ft 149 kts 255°
2026-05-07 18:10 55.99042 37.54268 1774 ft 150 kts 255°
2026-05-07 18:10 55.98772 37.52453 1580 ft 152 kts 255°
2026-05-07 18:10 55.98500 37.50621 1357 ft 153 kts 255°
2026-05-07 18:10 55.98226 37.48779 1149 ft 154 kts 255°
2026-05-07 18:11 55.97950 37.46929 960 ft 155 kts 255°
2026-05-07 18:11 55.97764 37.45675 828 ft 155 kts 255°
2026-05-07 18:11 55.97399 37.43230 654 ft 148 kts 255°
2026-05-07 18:11 55.97162 37.41642 642 ft 106 kts 255°
2026-05-07 18:12 55.97016 37.40649 644 ft 72 kts 255°
2026-05-07 18:12 55.96946 37.40121 650 ft 14 kts 277°
2026-05-07 18:12 55.97017 37.40029 652 ft 14 kts 343°
2026-05-07 18:12 55.97113 37.39976 646 ft 16 kts 343°
2026-05-07 18:13 55.97269 37.39909 647 ft 19 kts 347°
2026-05-07 18:13 55.97309 37.39892 646 ft 0 kts 347°
2026-05-07 18:14 55.97310 37.39892 646 ft 1 kts 350°
2026-05-07 18:14 55.97332 37.39919 649 ft 5 kts 44°
2026-05-07 18:14 55.97357 37.40008 649 ft 16 kts 73°
2026-05-07 18:15 55.97395 37.40252 648 ft 21 kts 75°
2026-05-07 18:15 55.97434 37.40511 649 ft 21 kts 75°
2026-05-07 18:15 55.97471 37.40762 647 ft 21 kts 75°
2026-05-07 18:15 55.97510 37.41016 645 ft 17 kts 75°
2026-05-07 18:16 55.97547 37.41151 649 ft 11 kts 30°
2026-05-07 18:16 55.97617 37.41179 647 ft 10 kts 36°
2026-05-07 18:16 55.97642 37.41293 648 ft 9 kts 75°
2026-05-07 18:16 55.97650 37.41350 649 ft 4 kts 75°
2026-05-07 18:17 55.97666 37.41391 651 ft 5 kts 34°
2026-05-07 18:17 55.97682 37.41400 646 ft 0 kts 11°
2026-05-07 18:17 55.97691 37.41394 649 ft 2 kts 339°
2026-05-07 18:17 55.97708 37.41373 645 ft 3 kts 318°
2026-05-07 18:18 55.97725 37.41339 648 ft 4 kts 300°
2026-05-07 18:18 55.97731 37.41319 651 ft 0 kts 301°
2026-05-07 18:18 55.97733 37.41314 651 ft 1 kts 301°
2026-05-07 18:18 55.97735 37.41307 647 ft 0 kts 301°
2026-05-07 18:19 55.97736 37.41306 647 ft 0 kts 301°